Wetterdaten: Dienstag, 22.03.2016
Datum Zeit Temp. Aussen Temp. o. S. +5cm Feuchte Auss BlattFeu 1 Luftdruck Regen Sonnenschein Regendauer Solar Windben Empfang
22.03.2016 00:00 6,0 C 6,1 C 4,4 C 90 % 0 lf 1016,9 hPa 0,0 l/m 0 min 0 min 0 W/m 14,6 km/h (3 Bft) 87,23 %
22.03.2016 00:02 6,0 C 6,1 C 4,4 C 90 % 0 lf 1016,9 hPa 0,0 l/m 0 min 0 min 0 W/m 8,4 km/h (2 Bft) 94,44 %
22.03.2016 00:06 6,0 C 6,1 C 4,4 C 90 % 0 lf 1016,9 hPa 0,0 l/m 0 min 0 min 0 W/m 16,7 km/h (3 Bft) 91,49 %
22.03.2016 00:08 5,9 C 6,1 C 4,4 C 90 % 0 lf 1016,9 hPa 0,0 l/m 0 min 0 min 0 W/m 12,6 km/h (3 Bft) 93,62 %
22.03.2016 00:10 5,9 C 5,6 C 4,4 C 90 % 0 lf 1016,9 hPa 0,0 l/m 0 min 0 min 0 W/m 16,7 km/h (3 Bft) 95,65 %
22.03.2016 00:12 5,9 C 5,6 C 4,4 C 90 % 0 lf 1016,9 hPa 0,0 l/m 0 min 0 min 0 W/m 16,7 km/h (3 Bft) 93,62 %
22.03.2016 00:14 5,9 C 5,6 C 4,4 C 90 % 0 lf 1016,9 hPa 0,0 l/m 0 min 0 min 0 W/m 16,7 km/h (3 Bft) 91,49 %
22.03.2016 00:16 5,9 C 5,6 C 4,4 C 90 % 0 lf 1016,9 hPa 0,0 l/m 0 min 0 min 0 W/m 16,7 km/h (3 Bft) 85,11 %
22.03.2016 00:18 5,9 C 5,6 C 3,9 C 90 % 0 lf 1016,9 hPa 0,0 l/m 0 min 0 min 0 W/m 8,4 km/h (2 Bft) 93,62 %
22.03.2016 00:20 5,9 C 5,6 C 3,9 C 90 % 0 lf 1016,9 hPa 0,0 l/m 0 min 0 min 0 W/m 10,5 km/h (2 Bft) 93,62 %
22.03.2016 00:22 5,8 C 5,6 C 3,9 C 90 % 0 lf 1016,9 hPa 0,0 l/m 0 min 0 min 0 W/m 12,6 km/h (3 Bft) 93,48 %
22.03.2016 00:24 5,8 C 5,6 C 3,9 C 90 % 0 lf 1016,9 hPa 0,0 l/m 0 min 0 min 0 W/m 18,8 km/h (3 Bft) 97,87 %
22.03.2016 00:26 5,8 C 5,0 C 3,9 C 90 % 0 lf 1016,9 hPa 0,0 l/m 0 min 0 min 0 W/m 18,8 km/h (3 Bft) 97,87 %
22.03.2016 00:28 5,8 C 5,0 C 3,9 C 90 % 0 lf 1016,8 hPa 0,0 l/m 0 min 0 min 0 W/m 16,7 km/h (3 Bft) 95,74 %
22.03.2016 00:30 5,7 C 5,0 C 3,9 C 90 % 0 lf 1016,8 hPa 0,0 l/m 0 min 0 min 0 W/m 12,6 km/h (3 Bft) 95,74 %
22.03.2016 00:32 5,7 C 5,0 C 3,9 C 90 % 1 lf 1016,8 hPa 0,0 l/m 0 min 0 min 0 W/m 10,5 km/h (2 Bft) 97,87 %
22.03.2016 00:34 5,7 C 5,0 C 3,3 C 90 % 1 lf 1016,8 hPa 0,0 l/m 0 min 0 min 0 W/m 12,6 km/h (3 Bft) 93,48 %
22.03.2016 00:36 5,6 C 5,0 C 3,3 C 90 % 1 lf 1016,7 hPa 0,0 l/m 0 min 0 min 0 W/m 14,6 km/h (3 Bft) 98,15 %
22.03.2016 00:38 5,6 C 5,0 C 3,3 C 90 % 1 lf 1016,7 hPa 0,0 l/m 0 min 0 min 0 W/m 10,5 km/h (2 Bft) 95,74 %
22.03.2016 00:40 5,6 C 4,4 C 3,3 C 90 % 1 lf 1016,7 hPa 0,0 l/m 0 min 0 min 0 W/m 10,5 km/h (2 Bft) 95,74 %
22.03.2016 00:42 5,6 C 4,4 C 3,3 C 90 % 1 lf 1016,7 hPa 0,0 l/m 0 min 0 min 0 W/m 10,5 km/h (2 Bft) 97,92 %
22.03.2016 00:44 5,5 C 4,4 C 3,3 C 90 % 1 lf 1016,8 hPa 0,0 l/m 0 min 0 min 0 W/m 12,6 km/h (3 Bft) 95,74 %
22.03.2016 00:46 5,5 C 4,4 C 3,3 C 90 % 1 lf 1016,8 hPa 0,0 l/m 0 min 0 min 0 W/m 12,6 km/h (3 Bft) 97,87 %
22.03.2016 00:48 5,4 C 4,4 C 3,3 C 90 % 1 lf 1016,8 hPa 0,0 l/m 0 min 0 min 0 W/m 12,6 km/h (3 Bft) 95,74 %
22.03.2016 00:50 5,4 C 4,4 C 3,3 C 90 % 1 lf 1016,8 hPa 0,0 l/m 0 min 0 min 0 W/m 10,5 km/h (2 Bft) 100,00 %
22.03.2016 00:52 5,4 C 4,4 C 2,8 C 90 % 1 lf 1016,7 hPa 0,0 l/m 0 min 0 min 0 W/m 12,6 km/h (3 Bft) 95,83 %
22.03.2016 00:54 5,3 C 4,4 C 2,8 C 90 % 1 lf 1016,7 hPa 0,0 l/m 0 min 0 min 0 W/m 6,3 km/h (2 Bft) 100,00 %
22.03.2016 00:56 5,3 C 3,9 C 2,8 C 90 % 1 lf 1016,7 hPa 0,0 l/m 0 min 0 min 0 W/m 6,3 km/h (2 Bft) 97,87 %
22.03.2016 00:58 5,3 C 3,9 C 2,8 C 90 % 1 lf 1016,7 hPa 0,0 l/m 0 min 0 min 0 W/m 10,5 km/h (2 Bft) 95,74 %
22.03.2016 01:00 5,2 C 3,9 C 2,8 C 90 % 1 lf 1016,6 hPa 0,0 l/m 0 min 0 min 0 W/m 6,3 km/h (2 Bft) 100,00 %
22.03.2016 01:02 5,2 C 3,9 C 2,8 C 90 % 1 lf 1016,6 hPa 0,0 l/m 0 min 0 min 0 W/m 6,3 km/h (2 Bft) 100,00 %
22.03.2016 01:04 5,2 C 3,9 C 2,2 C 90 % 1 lf 1016,6 hPa 0,0 l/m 0 min 0 min 0 W/m 6,3 km/h (2 Bft) 95,74 %
22.03.2016 01:06 5,1 C 3,9 C 2,2 C 90 % 2 lf 1016,6 hPa 0,0 l/m 0 min 0 min 0 W/m 6,3 km/h (2 Bft) 100,00 %
22.03.2016 01:08 5,1 C 3,9 C 2,2 C 90 % 2 lf 1016,6 hPa 0,0 l/m 0 min 0 min 0 W/m 8,4 km/h (2 Bft) 100,00 %
22.03.2016 01:10 5,1 C 3,3 C 2,2 C 89 % 2 lf 1016,6 hPa 0,0 l/m 0 min 0 min 0 W/m 8,4 km/h (2 Bft) 97,14 %
22.03.2016 01:12 5,0 C 3,9 C 2,2 C 89 % 2 lf 1016,6 hPa 0,0 l/m 0 min 0 min 0 W/m 6,3 km/h (2 Bft) 100,00 %
22.03.2016 01:14 4,9 C 3,3 C 2,2 C 89 % 2 lf 1016,5 hPa 0,0 l/m 0 min 0 min 0 W/m 6,3 km/h (2 Bft) 94,92 %
22.03.2016 01:16 4,9 C 3,3 C 2,2 C 89 % 2 lf 1016,5 hPa 0,0 l/m 0 min 0 min 0 W/m 8,4 km/h (2 Bft) 100,00 %
22.03.2016 01:18 4,9 C 3,3 C 2,2 C 89 % 2 lf 1016,5 hPa 0,0 l/m 0 min 0 min 0 W/m 8,4 km/h (2 Bft) 100,00 %
22.03.2016 01:20 4,8 C 3,3 C 2,2 C 89 % 2 lf 1016,5 hPa 0,0 l/m 0 min 0 min 0 W/m 6,3 km/h (2 Bft) 97,87 %
22.03.2016 01:22 4,8 C 3,3 C 2,2 C 89 % 2 lf 1016,5 hPa 0,0 l/m 0 min 0 min 0 W/m 8,4 km/h (2 Bft) 100,00 %
22.03.2016 01:24 4,7 C 3,3 C 2,2 C 89 % 2 lf 1016,5 hPa 0,0 l/m 0 min 0 min 0 W/m 8,4 km/h (2 Bft) 97,87 %
22.03.2016 01:26 4,7 C 3,3 C 2,2 C 89 % 2 lf 1016,5 hPa 0,0 l/m 0 min 0 min 0 W/m 6,3 km/h (2 Bft) 97,87 %
22.03.2016 01:28 4,7 C 3,3 C 2,2 C 89 % 2 lf 1016,5 hPa 0,0 l/m 0 min 0 min 0 W/m 10,5 km/h (2 Bft) 97,83 %
22.03.2016 01:30 4,6 C 3,3 C 2,8 C 89 % 2 lf 1016,5 hPa 0,0 l/m 0 min 0 min 0 W/m 8,4 km/h (2 Bft) 100,00 %
22.03.2016 01:32 4,6 C 3,9 C 2,8 C 89 % 2 lf 1016,5 hPa 0,0 l/m 0 min 0 min 0 W/m 8,4 km/h (2 Bft) 97,22 %
22.03.2016 01:34 4,6 C 3,9 C 2,8 C 90 % 2 lf 1016,5 hPa 0,0 l/m 0 min 0 min 0 W/m 6,3 km/h (2 Bft) 97,87 %
22.03.2016 01:36 4,6 C 3,9 C 2,8 C 90 % 2 lf 1016,5 hPa 0,0 l/m 0 min 0 min 0 W/m 6,3 km/h (2 Bft) 96,30 %
22.03.2016 01:38 4,5 C 3,9 C 3,3 C 90 % 2 lf 1016,5 hPa 0,0 l/m 0 min 0 min 0 W/m 12,6 km/h (3 Bft) 100,00 %
22.03.2016 01:40 4,5 C 4,4 C 3,3 C 90 % 1 lf 1016,5 hPa 0,0 l/m 0 min 0 min 0 W/m 8,4 km/h (2 Bft) 95,74 %
22.03.2016 01:42 4,5 C 4,4 C 3,3 C 90 % 1 lf 1016,5 hPa 0,0 l/m 0 min 0 min 0 W/m 8,4 km/h (2 Bft) 97,87 %
22.03.2016 01:44 4,5 C 4,4 C 3,3 C 90 % 1 lf 1016,5 hPa 0,0 l/m 0 min 0 min 0 W/m 10,5 km/h (2 Bft) 93,62 %
22.03.2016 01:46 4,5 C 4,4 C 3,3 C 90 % 1 lf 1016,5 hPa 0,0 l/m 0 min 0 min 0 W/m 10,5 km/h (2 Bft) 97,87 %
22.03.2016 01:48 4,5 C 4,4 C 3,3 C 91 % 1 lf 1016,4 hPa 0,0 l/m 0 min 0 min 0 W/m 8,4 km/h (2 Bft) 97,87 %
22.03.2016 01:50 4,6 C 4,4 C 3,3 C 91 % 1 lf 1016,4 hPa 0,0 l/m 0 min 0 min 0 W/m 6,3 km/h (2 Bft) 97,87 %
22.03.2016 01:52 4,6 C 4,4 C 3,3 C 91 % 1 lf 1016,4 hPa 0,0 l/m 0 min 0 min 0 W/m 6,3 km/h (2 Bft) 95,74 %
22.03.2016 01:54 4,6 C 4,4 C 3,3 C 91 % 1 lf 1016,4 hPa 0,0 l/m 0 min 0 min 0 W/m 8,4 km/h (2 Bft) 95,74 %
22.03.2016 01:56 4,6 C 4,4 C 3,3 C 91 % 1 lf 1016,4 hPa 0,0 l/m 0 min 0 min 0 W/m 6,3 km/h (2 Bft) 95,74 %
22.03.2016 01:58 4,6 C 4,4 C 3,3 C 91 % 1 lf 1016,4 hPa 0,0 l/m 0 min 0 min 0 W/m 8,4 km/h (2 Bft) 95,74 %
22.03.2016 02:00 4,6 C 4,4 C 3,3 C 92 % 1 lf 1016,4 hPa 0,0 l/m 0 min 0 min 0 W/m 8,4 km/h (2 Bft) 95,74 %
22.03.2016 02:02 4,6 C 4,4 C 3,3 C 92 % 1 lf 1016,3 hPa 0,0 l/m 0 min 0 min 0 W/m 10,5 km/h (2 Bft) 95,92 %
22.03.2016 02:04 4,6 C 5,0 C 3,3 C 92 % 1 lf 1016,4 hPa 0,0 l/m 0 min 0 min 0 W/m 6,3 km/h (2 Bft) 97,83 %
22.03.2016 02:06 4,7 C 4,4 C 3,3 C 92 % 1 lf 1016,3 hPa 0,0 l/m 0 min 0 min 0 W/m 10,5 km/h (2 Bft) 97,87 %
22.03.2016 02:08 4,7 C 4,4 C 3,3 C 92 % 1 lf 1016,3 hPa 0,0 l/m 0 min 0 min 0 W/m 8,4 km/h (2 Bft) 97,87 %
22.03.2016 02:10 4,7 C 5,0 C 3,3 C 92 % 1 lf 1016,3 hPa 0,0 l/m 0 min 0 min 0 W/m 8,4 km/h (2 Bft) 94,29 %
22.03.2016 02:12 4,7 C 5,0 C 3,3 C 92 % 1 lf 1016,3 hPa 0,0 l/m 0 min 0 min 0 W/m 6,3 km/h (2 Bft) 98,31 %
22.03.2016 02:14 4,7 C 4,4 C 3,3 C 92 % 1 lf 1016,3 hPa 0,0 l/m 0 min 0 min 0 W/m 6,3 km/h (2 Bft) 97,87 %
22.03.2016 02:16 4,7 C 4,4 C 3,3 C 92 % 1 lf 1016,3 hPa 0,0 l/m 0 min 0 min 0 W/m 8,4 km/h (2 Bft) 89,13 %
22.03.2016 02:18 4,7 C 4,4 C 3,3 C 92 % 1 lf 1016,3 hPa 0,0 l/m 0 min 0 min 0 W/m 8,4 km/h (2 Bft) 97,87 %
22.03.2016 02:20 4,7 C 4,4 C 3,3 C 92 % 1 lf 1016,3 hPa 0,0 l/m 0 min 0 min 0 W/m 6,3 km/h (2 Bft) 95,74 %
22.03.2016 02:22 4,7 C 4,4 C 3,3 C 92 % 1 lf 1016,3 hPa 0,0 l/m 0 min 0 min 0 W/m 8,4 km/h (2 Bft) 94,29 %
22.03.2016 02:24 4,7 C 4,4 C 3,3 C 92 % 1 lf 1016,3 hPa 0,0 l/m 0 min 0 min 0 W/m 6,3 km/h (2 Bft) 97,87 %
22.03.2016 02:26 4,7 C 4,4 C 3,3 C 92 % 1 lf 1016,3 hPa 0,0 l/m 0 min 0 min 0 W/m 8,4 km/h (2 Bft) 97,87 %
22.03.2016 02:28 4,7 C 4,4 C 3,3 C 93 % 1 lf 1016,3 hPa 0,0 l/m 0 min 0 min 0 W/m 8,4 km/h (2 Bft) 95,74 %
22.03.2016 02:30 4,7 C 4,4 C 3,3 C 93 % 1 lf 1016,3 hPa 0,0 l/m 0 min 0 min 0 W/m 8,4 km/h (2 Bft) 97,83 %
22.03.2016 02:32 4,7 C 4,4 C 3,3 C 93 % 1 lf 1016,2 hPa 0,0 l/m 0 min 0 min 0 W/m 6,3 km/h (2 Bft) 93,75 %
22.03.2016 02:34 4,7 C 4,4 C 3,3 C 93 % 1 lf 1016,3 hPa 0,0 l/m 0 min 0 min 0 W/m 6,3 km/h (2 Bft) 95,74 %
22.03.2016 02:36 4,7 C 4,4 C 3,3 C 93 % 1 lf 1016,3 hPa 0,0 l/m 0 min 0 min 0 W/m 4,2 km/h (1 Bft) 95,74 %
22.03.2016 02:38 4,7 C 4,4 C 3,3 C 93 % 1 lf 1016,2 hPa 0,0 l/m 0 min 0 min 0 W/m 8,4 km/h (2 Bft) 97,87 %
22.03.2016 02:40 4,7 C 4,4 C 3,3 C 93 % 1 lf 1016,2 hPa 0,0 l/m 0 min 0 min 0 W/m 8,4 km/h (2 Bft) 97,87 %
22.03.2016 02:42 4,7 C 4,4 C 3,3 C 93 % 1 lf 1016,3 hPa 0,0 l/m 0 min 0 min 0 W/m 6,3 km/h (2 Bft) 97,83 %
22.03.2016 02:44 4,7 C 4,4 C 3,3 C 93 % 1 lf 1016,3 hPa 0,0 l/m 0 min 0 min 0 W/m 6,3 km/h (2 Bft) 95,74 %
22.03.2016 02:46 4,7 C 4,4 C 3,3 C 93 % 1 lf 1016,3 hPa 0,0 l/m 0 min 0 min 0 W/m 10,5 km/h (2 Bft) 97,87 %
22.03.2016 02:48 4,7 C 4,4 C 3,3 C 93 % 1 lf 1016,2 hPa 0,0 l/m 0 min 0 min 0 W/m 4,2 km/h (1 Bft) 97,87 %
22.03.2016 02:50 4,7 C 4,4 C 3,3 C 93 % 1 lf 1016,2 hPa 0,0 l/m 0 min 0 min 0 W/m 10,5 km/h (2 Bft) 95,74 %
22.03.2016 02:52 4,7 C 4,4 C 3,3 C 93 % 1 lf 1016,2 hPa 0,0 l/m 0 min 0 min 0 W/m 8,4 km/h (2 Bft) 93,62 %
22.03.2016 02:54 4,7 C 4,4 C 3,3 C 93 % 1 lf 1016,3 hPa 0,0 l/m 0 min 0 min 0 W/m 6,3 km/h (2 Bft) 95,65 %
22.03.2016 02:56 4,7 C 4,4 C 3,3 C 93 % 1 lf 1016,2 hPa 0,0 l/m 0 min 0 min 0 W/m 4,2 km/h (1 Bft) 93,62 %
22.03.2016 02:58 4,6 C 4,4 C 3,3 C 93 % 1 lf 1016,2 hPa 0,0 l/m 0 min 0 min 0 W/m 6,3 km/h (2 Bft) 100,00 %
22.03.2016 03:00 4,6 C 4,4 C 3,3 C 93 % 1 lf 1016,2 hPa 0,0 l/m 0 min 0 min 0 W/m 6,3 km/h (2 Bft) 95,74 %
22.03.2016 03:02 4,6 C 4,4 C 3,3 C 93 % 1 lf 1016,2 hPa 0,0 l/m 0 min 0 min 0 W/m 6,3 km/h (2 Bft) 95,74 %
22.03.2016 03:04 4,6 C 4,4 C 3,3 C 93 % 1 lf 1016,2 hPa 0,0 l/m 0 min 0 min 0 W/m 10,5 km/h (2 Bft) 93,62 %
22.03.2016 03:06 4,6 C 4,4 C 3,3 C 93 % 1 lf 1016,2 hPa 0,0 l/m 0 min 0 min 0 W/m 10,5 km/h (2 Bft) 93,48 %
22.03.2016 03:08 4,6 C 4,4 C 3,3 C 93 % 1 lf 1016,2 hPa 0,0 l/m 0 min 0 min 0 W/m 8,4 km/h (2 Bft) 91,49 %
22.03.2016 03:10 4,6 C 4,4 C 3,3 C 93 % 1 lf 1016,1 hPa 0,0 l/m 0 min 0 min 0 W/m 8,4 km/h (2 Bft) 93,62 %
22.03.2016 03:12 4,6 C 4,4 C 3,3 C 93 % 1 lf 1016,1 hPa 0,0 l/m 0 min 0 min 0 W/m 6,3 km/h (2 Bft) 97,87 %
22.03.2016 03:14 4,6 C 4,4 C 3,3 C 93 % 1 lf 1016,1 hPa 0,0 l/m 0 min 0 min 0 W/m 8,4 km/h (2 Bft) 95,74 %
22.03.2016 03:16 4,6 C 4,4 C 3,3 C 93 % 1 lf 1016,2 hPa 0,0 l/m 0 min 0 min 0 W/m 12,6 km/h (3 Bft) 95,65 %
22.03.2016 03:18 4,6 C 4,4 C 3,3 C 93 % 1 lf 1016,1 hPa 0,0 l/m 0 min 0 min 0 W/m 10,5 km/h (2 Bft) 95,74 %
22.03.2016 03:20 4,6 C 4,4 C 3,3 C 93 % 1 lf 1016,1 hPa 0,0 l/m 0 min 0 min 0 W/m 6,3 km/h (2 Bft) 93,62 %
22.03.2016 03:22 4,6 C 4,4 C 3,3 C 93 % 1 lf 1016,1 hPa 0,0 l/m 0 min 0 min 0 W/m 8,4 km/h (2 Bft) 93,62 %
22.03.2016 03:24 4,6 C 4,4 C 3,3 C 93 % 1 lf 1016,0 hPa 0,0 l/m 0 min 0 min 0 W/m 4,2 km/h (1 Bft) 89,36 %
22.03.2016 03:26 4,6 C 4,4 C 3,3 C 93 % 1 lf 1016,1 hPa 0,0 l/m 0 min 0 min 0 W/m 12,6 km/h (3 Bft) 93,62 %
22.03.2016 03:28 4,6 C 4,4 C 3,3 C 93 % 1 lf 1015,9 hPa 0,0 l/m 0 min 0 min 0 W/m 10,5 km/h (2 Bft) 91,30 %
22.03.2016 03:30 4,6 C 4,4 C 3,3 C 94 % 1 lf 1015,9 hPa 0,0 l/m 0 min 0 min 0 W/m 10,5 km/h (2 Bft) 93,62 %
22.03.2016 03:32 4,6 C 4,4 C 3,3 C 94 % 1 lf 1016,0 hPa 0,0 l/m 0 min 0 min 0 W/m 8,4 km/h (2 Bft) 92,45 %
22.03.2016 03:34 4,6 C 4,4 C 3,3 C 94 % 1 lf 1015,9 hPa 0,0 l/m 0 min 0 min 0 W/m 8,4 km/h (2 Bft) 91,49 %
22.03.2016 03:36 4,6 C 4,4 C 3,3 C 94 % 1 lf 1015,8 hPa 0,0 l/m 0 min 0 min 0 W/m 8,4 km/h (2 Bft) 93,62 %
22.03.2016 03:38 4,6 C 4,4 C 3,3 C 94 % 1 lf 1015,8 hPa 0,0 l/m 0 min 0 min 0 W/m 6,3 km/h (2 Bft) 93,48 %
22.03.2016 03:40 4,6 C 4,4 C 3,3 C 94 % 1 lf 1015,8 hPa 0,0 l/m 0 min 0 min 0 W/m 6,3 km/h (2 Bft) 91,49 %
22.03.2016 03:42 4,6 C 4,4 C 3,3 C 94 % 1 lf 1015,7 hPa 0,0 l/m 0 min 0 min 0 W/m 6,3 km/h (2 Bft) 93,62 %
22.03.2016 03:44 4,6 C 4,4 C 3,3 C 94 % 1 lf 1015,7 hPa 0,0 l/m 0 min 0 min 0 W/m 10,5 km/h (2 Bft) 93,62 %
22.03.2016 03:46 4,6 C 4,4 C 3,3 C 94 % 1 lf 1015,6 hPa 0,0 l/m 0 min 0 min 0 W/m 8,4 km/h (2 Bft) 93,62 %
22.03.2016 03:48 4,6 C 4,4 C 3,3 C 94 % 1 lf 1015,6 hPa 0,0 l/m 0 min 0 min 0 W/m 8,4 km/h (2 Bft) 93,62 %
22.03.2016 03:50 4,6 C 4,4 C 3,3 C 94 % 1 lf 1015,5 hPa 0,0 l/m 0 min 0 min 0 W/m 6,3 km/h (2 Bft) 95,65 %
22.03.2016 03:52 4,6 C 4,4 C 3,3 C 94 % 1 lf 1015,5 hPa 0,0 l/m 0 min 0 min 0 W/m 8,4 km/h (2 Bft) 91,49 %
22.03.2016 03:54 4,6 C 4,4 C 3,3 C 94 % 1 lf 1015,4 hPa 0,0 l/m 0 min 0 min 0 W/m 10,5 km/h (2 Bft) 93,62 %
22.03.2016 03:56 4,6 C 4,4 C 3,3 C 94 % 1 lf 1015,3 hPa 0,0 l/m 0 min 0 min 0 W/m 8,4 km/h (2 Bft) 95,74 %
22.03.2016 03:58 4,5 C 4,4 C 3,3 C 94 % 1 lf 1015,4 hPa 0,0 l/m 0 min 0 min 0 W/m 10,5 km/h (2 Bft) 95,74 %
22.03.2016 04:00 4,5 C 4,4 C 3,3 C 94 % 1 lf 1015,4 hPa 0,0 l/m 0 min 0 min 0 W/m 12,6 km/h (3 Bft) 97,87 %
22.03.2016 04:05 4,5 C 4,4 C 3,3 C 94 % 1 lf 1015,4 hPa 0,0 l/m 0 min 0 min 0 W/m 8,4 km/h (2 Bft) 100,00 %
22.03.2016 04:06 4,5 C 4,4 C 3,3 C 94 % 1 lf 1015,4 hPa 0,0 l/m 0 min 0 min 0 W/m 6,3 km/h (2 Bft) 95,65 %
22.03.2016 04:11 4,4 C 4,4 C 3,3 C 94 % 1 lf 1015,4 hPa 0,0 l/m 0 min 0 min 0 W/m 8,4 km/h (2 Bft) 94,74 %
22.03.2016 04:12 4,4 C 4,4 C 3,3 C 94 % 1 lf 1015,4 hPa 0,0 l/m 0 min 0 min 0 W/m 6,3 km/h (2 Bft) 95,65 %
22.03.2016 04:14 4,4 C 3,9 C 3,3 C 94 % 1 lf 1015,3 hPa 0,0 l/m 0 min 0 min 0 W/m 6,3 km/h (2 Bft) 100,00 %
22.03.2016 04:16 4,4 C 3,9 C 3,3 C 94 % 1 lf 1015,3 hPa 0,0 l/m 0 min 0 min 0 W/m 6,3 km/h (2 Bft) 100,00 %
22.03.2016 04:18 4,4 C 3,9 C 3,3 C 94 % 1 lf 1015,3 hPa 0,0 l/m 0 min 0 min 0 W/m 8,4 km/h (2 Bft) 95,74 %
22.03.2016 04:20 4,4 C 3,9 C 3,3 C 94 % 1 lf 1015,3 hPa 0,0 l/m 0 min 0 min 0 W/m 10,5 km/h (2 Bft) 100,00 %
22.03.2016 04:22 4,4 C 3,9 C 2,8 C 94 % 1 lf 1015,4 hPa 0,0 l/m 0 min 0 min 0 W/m 4,2 km/h (1 Bft) 97,92 %
22.03.2016 04:24 4,4 C 3,9 C 2,8 C 94 % 1 lf 1015,5 hPa 0,0 l/m 0 min 0 min 0 W/m 8,4 km/h (2 Bft) 100,00 %
22.03.2016 04:26 4,4 C 3,9 C 2,8 C 94 % 1 lf 1015,4 hPa 0,0 l/m 0 min 0 min 0 W/m 4,2 km/h (1 Bft) 100,00 %
22.03.2016 04:28 4,4 C 3,9 C 2,8 C 94 % 2 lf 1015,3 hPa 0,0 l/m 0 min 0 min 0 W/m 2,1 km/h (1 Bft) 97,87 %
22.03.2016 04:30 4,3 C 3,9 C 2,8 C 94 % 2 lf 1015,3 hPa 0,0 l/m 0 min 0 min 0 W/m 8,4 km/h (2 Bft) 97,87 %
22.03.2016 04:32 4,3 C 3,9 C 2,8 C 94 % 2 lf 1015,2 hPa 0,0 l/m 0 min 0 min 0 W/m 6,3 km/h (2 Bft) 97,22 %
22.03.2016 04:34 4,3 C 3,9 C 2,8 C 94 % 2 lf 1015,2 hPa 0,0 l/m 0 min 0 min 0 W/m 12,6 km/h (3 Bft) 95,74 %
22.03.2016 04:36 4,3 C 3,3 C 2,2 C 94 % 2 lf 1015,2 hPa 0,0 l/m 0 min 0 min 0 W/m 4,2 km/h (1 Bft) 97,87 %
22.03.2016 04:38 4,3 C 3,3 C 2,2 C 94 % 2 lf 1015,3 hPa 0,0 l/m 0 min 0 min 0 W/m 4,2 km/h (1 Bft) 100,00 %
22.03.2016 04:40 4,2 C 3,3 C 2,2 C 94 % 3 lf 1015,3 hPa 0,0 l/m 0 min 0 min 0 W/m 6,3 km/h (2 Bft) 97,87 %
22.03.2016 04:42 4,2 C 3,3 C 2,2 C 94 % 3 lf 1015,4 hPa 0,0 l/m 0 min 0 min 0 W/m 6,3 km/h (2 Bft) 100,00 %
22.03.2016 04:44 4,2 C 3,3 C 2,2 C 94 % 3 lf 1015,4 hPa 0,0 l/m 0 min 0 min 0 W/m 6,3 km/h (2 Bft) 98,31 %
22.03.2016 04:46 4,2 C 3,3 C 2,2 C 94 % 3 lf 1015,4 hPa 0,0 l/m 0 min 0 min 0 W/m 6,3 km/h (2 Bft) 97,14 %
22.03.2016 04:48 4,2 C 3,3 C 2,2 C 94 % 3 lf 1015,4 hPa 0,0 l/m 0 min 0 min 0 W/m 6,3 km/h (2 Bft) 97,87 %
22.03.2016 04:50 4,2 C 3,3 C 2,2 C 94 % 3 lf 1015,4 hPa 0,0 l/m 0 min 0 min 0 W/m 4,2 km/h (1 Bft) 95,65 %
22.03.2016 04:52 4,1 C 3,3 C 2,2 C 94 % 3 lf 1015,4 hPa 0,0 l/m 0 min 0 min 0 W/m 4,2 km/h (1 Bft) 93,22 %
22.03.2016 04:54 4,1 C 3,9 C 2,8 C 94 % 3 lf 1015,4 hPa 0,0 l/m 0 min 0 min 0 W/m 4,2 km/h (1 Bft) 95,74 %
22.03.2016 04:56 4,1 C 3,9 C 2,8 C 94 % 3 lf 1015,4 hPa 0,0 l/m 0 min 0 min 0 W/m 4,2 km/h (1 Bft) 91,43 %
22.03.2016 04:58 4,1 C 3,9 C 2,8 C 94 % 3 lf 1015,3 hPa 0,0 l/m 0 min 0 min 0 W/m 4,2 km/h (1 Bft) 95,74 %
22.03.2016 05:00 4,1 C 3,9 C 2,8 C 94 % 2 lf 1015,4 hPa 0,0 l/m 0 min 0 min 0 W/m 6,3 km/h (2 Bft) 97,87 %
22.03.2016 05:02 4,1 C 3,9 C 2,8 C 94 % 2 lf 1015,4 hPa 0,0 l/m 0 min 0 min 0 W/m 4,2 km/h (1 Bft) 97,83 %
22.03.2016 05:04 4,0 C 3,9 C 2,8 C 94 % 2 lf 1015,3 hPa 0,0 l/m 0 min 0 min 0 W/m 8,4 km/h (2 Bft) 96,61 %
22.03.2016 05:06 4,0 C 3,9 C 2,8 C 94 % 2 lf 1015,3 hPa 0,0 l/m 0 min 0 min 0 W/m 6,3 km/h (2 Bft) 93,62 %
22.03.2016 05:08 4,0 C 3,9 C 2,8 C 94 % 2 lf 1015,3 hPa 0,0 l/m 0 min 0 min 0 W/m 6,3 km/h (2 Bft) 95,74 %
22.03.2016 05:10 4,0 C 3,9 C 2,8 C 94 % 2 lf 1015,3 hPa 0,0 l/m 0 min 0 min 0 W/m 6,3 km/h (2 Bft) 95,65 %
22.03.2016 05:12 4,0 C 3,9 C 2,8 C 94 % 2 lf 1015,3 hPa 0,0 l/m 0 min 0 min 0 W/m 6,3 km/h (2 Bft) 93,62 %
22.03.2016 05:14 4,0 C 3,9 C 2,8 C 94 % 2 lf 1015,3 hPa 0,0 l/m 0 min 0 min 0 W/m 10,5 km/h (2 Bft) 97,14 %
22.03.2016 05:16 4,0 C 3,9 C 2,8 C 94 % 2 lf 1015,3 hPa 0,0 l/m 0 min 0 min 0 W/m 10,5 km/h (2 Bft) 94,92 %
22.03.2016 05:18 4,0 C 3,9 C 2,8 C 94 % 2 lf 1015,3 hPa 0,0 l/m 0 min 0 min 0 W/m 10,5 km/h (2 Bft) 93,62 %
22.03.2016 05:20 4,0 C 3,9 C 2,8 C 94 % 2 lf 1015,2 hPa 0,0 l/m 0 min 0 min 0 W/m 10,5 km/h (2 Bft) 91,43 %
22.03.2016 05:22 4,0 C 3,9 C 2,8 C 94 % 2 lf 1015,3 hPa 0,0 l/m 0 min 0 min 0 W/m 10,5 km/h (2 Bft) 96,55 %
22.03.2016 05:24 4,0 C 3,9 C 2,8 C 94 % 2 lf 1015,3 hPa 0,0 l/m 0 min 0 min 0 W/m 10,5 km/h (2 Bft) 95,74 %
22.03.2016 05:26 4,0 C 3,9 C 2,8 C 94 % 2 lf 1015,3 hPa 0,0 l/m 0 min 0 min 0 W/m 10,5 km/h (2 Bft) 93,62 %
22.03.2016 05:28 4,1 C 3,9 C 3,3 C 94 % 2 lf 1015,3 hPa 0,0 l/m 0 min 0 min 0 W/m 14,6 km/h (3 Bft) 93,62 %
22.03.2016 05:30 4,1 C 3,9 C 3,3 C 94 % 2 lf 1015,3 hPa 0,0 l/m 0 min 0 min 0 W/m 14,6 km/h (3 Bft) 95,74 %
22.03.2016 05:32 4,1 C 4,4 C 3,3 C 94 % 1 lf 1015,2 hPa 0,0 l/m 0 min 0 min 0 W/m 12,6 km/h (3 Bft) 94,44 %
22.03.2016 05:34 4,1 C 4,4 C 3,3 C 94 % 1 lf 1015,2 hPa 0,0 l/m 0 min 0 min 0 W/m 12,6 km/h (3 Bft) 97,87 %
22.03.2016 05:36 4,1 C 4,4 C 3,3 C 94 % 1 lf 1015,3 hPa 0,0 l/m 0 min 0 min 0 W/m 10,5 km/h (2 Bft) 97,83 %
22.03.2016 05:38 4,1 C 4,4 C 3,3 C 94 % 2 lf 1015,3 hPa 0,0 l/m 0 min 0 min 0 W/m 6,3 km/h (2 Bft) 97,87 %
22.03.2016 05:40 4,1 C 4,4 C 3,3 C 94 % 2 lf 1015,3 hPa 0,0 l/m 0 min 0 min 0 W/m 10,5 km/h (2 Bft) 97,87 %
22.03.2016 05:42 4,1 C 3,9 C 2,8 C 94 % 2 lf 1015,3 hPa 0,0 l/m 0 min 0 min 0 W/m 8,4 km/h (2 Bft) 97,87 %
22.03.2016 05:44 4,1 C 3,9 C 2,8 C 95 % 2 lf 1015,2 hPa 0,0 l/m 0 min 0 min 0 W/m 10,5 km/h (2 Bft) 100,00 %
22.03.2016 05:46 4,1 C 3,9 C 2,8 C 95 % 2 lf 1015,2 hPa 0,0 l/m 0 min 0 min 0 W/m 8,4 km/h (2 Bft) 100,00 %
22.03.2016 05:48 4,1 C 3,9 C 2,8 C 95 % 2 lf 1015,2 hPa 0,0 l/m 0 min 0 min 0 W/m 8,4 km/h (2 Bft) 97,83 %
22.03.2016 05:50 4,1 C 3,9 C 2,8 C 95 % 2 lf 1015,2 hPa 0,0 l/m 0 min 0 min 0 W/m 6,3 km/h (2 Bft) 97,87 %
22.03.2016 05:52 4,1 C 3,9 C 2,8 C 95 % 2 lf 1015,1 hPa 0,0 l/m 0 min 0 min 0 W/m 6,3 km/h (2 Bft) 100,00 %
22.03.2016 05:54 4,1 C 3,9 C 2,8 C 95 % 2 lf 1015,0 hPa 0,0 l/m 0 min 0 min 0 W/m 16,7 km/h (3 Bft) 100,00 %
22.03.2016 05:56 4,1 C 4,4 C 3,3 C 95 % 1 lf 1015,1 hPa 0,0 l/m 0 min 0 min 0 W/m 18,8 km/h (3 Bft) 100,00 %
22.03.2016 05:58 4,1 C 4,4 C 3,3 C 95 % 1 lf 1015,1 hPa 0,0 l/m 0 min 0 min 0 W/m 12,6 km/h (3 Bft) 97,87 %
22.03.2016 06:00 4,2 C 4,4 C 3,3 C 95 % 1 lf 1015,1 hPa 0,0 l/m 0 min 0 min 0 W/m 14,6 km/h (3 Bft) 100,00 %
22.03.2016 06:02 4,2 C 4,4 C 3,3 C 95 % 1 lf 1015,1 hPa 0,0 l/m 0 min 0 min 0 W/m 10,5 km/h (2 Bft) 98,11 %
22.03.2016 06:04 4,2 C 4,4 C 3,3 C 95 % 1 lf 1015,2 hPa 0,0 l/m 0 min 0 min 0 W/m 10,5 km/h (2 Bft) 100,00 %
22.03.2016 06:06 4,2 C 4,4 C 3,3 C 95 % 1 lf 1015,3 hPa 0,0 l/m 0 min 0 min 0 W/m 10,5 km/h (2 Bft) 100,00 %
22.03.2016 06:08 4,2 C 4,4 C 3,3 C 95 % 1 lf 1015,3 hPa 0,0 l/m 0 min 0 min 0 W/m 10,5 km/h (2 Bft) 97,87 %
22.03.2016 06:10 4,2 C 4,4 C 3,3 C 95 % 1 lf 1015,2 hPa 0,0 l/m 0 min 0 min 0 W/m 10,5 km/h (2 Bft) 95,65 %
22.03.2016 06:12 4,2 C 4,4 C 3,3 C 95 % 1 lf 1015,2 hPa 0,0 l/m 0 min 0 min 0 W/m 12,6 km/h (3 Bft) 97,87 %
22.03.2016 06:14 4,2 C 4,4 C 3,3 C 95 % 1 lf 1015,3 hPa 0,0 l/m 0 min 0 min 0 W/m 12,6 km/h (3 Bft) 93,62 %
22.03.2016 06:16 4,2 C 4,4 C 3,3 C 95 % 1 lf 1015,3 hPa 0,0 l/m 0 min 0 min 0 W/m 10,5 km/h (2 Bft) 95,74 %
22.03.2016 06:18 4,2 C 4,4 C 3,3 C 95 % 1 lf 1015,2 hPa 0,0 l/m 0 min 0 min 0 W/m 14,6 km/h (3 Bft) 97,87 %
22.03.2016 06:20 4,2 C 4,4 C 3,3 C 95 % 1 lf 1015,2 hPa 0,0 l/m 0 min 0 min 0 W/m 14,6 km/h (3 Bft) 97,87 %
22.03.2016 06:22 4,2 C 4,4 C 3,3 C 95 % 1 lf 1015,3 hPa 0,0 l/m 0 min 0 min 0 W/m 10,5 km/h (2 Bft) 97,87 %
22.03.2016 06:24 4,2 C 4,4 C 3,3 C 95 % 1 lf 1015,3 hPa 0,0 l/m 0 min 0 min 0 W/m 10,5 km/h (2 Bft) 97,87 %
22.03.2016 06:26 4,2 C 4,4 C 3,3 C 95 % 1 lf 1015,3 hPa 0,0 l/m 0 min 0 min 0 W/m 8,4 km/h (2 Bft) 95,74 %
22.03.2016 06:28 4,2 C 4,4 C 3,3 C 95 % 1 lf 1015,3 hPa 0,0 l/m 0 min 0 min 0 W/m 8,4 km/h (2 Bft) 95,74 %
22.03.2016 06:30 4,2 C 4,4 C 3,3 C 95 % 1 lf 1015,3 hPa 0,0 l/m 0 min 0 min 0 W/m 10,5 km/h (2 Bft) 97,87 %
22.03.2016 06:32 4,2 C 4,4 C 3,3 C 95 % 1 lf 1015,3 hPa 0,0 l/m 0 min 0 min 0 W/m 10,5 km/h (2 Bft) 89,36 %
22.03.2016 06:34 4,2 C 4,4 C 3,3 C 95 % 1 lf 1015,3 hPa 0,0 l/m 0 min 0 min 5 W/m 12,6 km/h (3 Bft) 97,87 %
22.03.2016 06:36 4,2 C 4,4 C 3,3 C 95 % 1 lf 1015,3 hPa 0,0 l/m 0 min 0 min 5 W/m 10,5 km/h (2 Bft) 94,74 %
22.03.2016 06:38 4,3 C 4,4 C 3,3 C 95 % 1 lf 1015,3 hPa 0,0 l/m 0 min 0 min 5 W/m 10,5 km/h (2 Bft) 97,87 %
22.03.2016 06:40 4,3 C 4,4 C 3,3 C 95 % 1 lf 1015,3 hPa 0,0 l/m 0 min 0 min 5 W/m 16,7 km/h (3 Bft) 97,87 %
22.03.2016 06:42 4,3 C 4,4 C 3,3 C 95 % 1 lf 1015,3 hPa 0,0 l/m 0 min 0 min 5 W/m 12,6 km/h (3 Bft) 97,87 %
22.03.2016 06:44 4,3 C 4,4 C 3,3 C 95 % 1 lf 1015,3 hPa 0,0 l/m 0 min 0 min 5 W/m 10,5 km/h (2 Bft) 97,87 %
22.03.2016 06:46 4,3 C 4,4 C 3,3 C 95 % 1 lf 1015,2 hPa 0,0 l/m 0 min 0 min 6 W/m 14,6 km/h (3 Bft) 97,83 %
22.03.2016 06:48 4,3 C 4,4 C 3,3 C 95 % 1 lf 1015,2 hPa 0,0 l/m 0 min 0 min 9 W/m 16,7 km/h (3 Bft) 97,87 %
22.03.2016 06:50 4,3 C 4,4 C 3,3 C 95 % 1 lf 1015,2 hPa 0,0 l/m 0 min 0 min 11 W/m 12,6 km/h (3 Bft) 91,49 %
22.03.2016 06:52 4,3 C 4,4 C 3,3 C 95 % 1 lf 1015,1 hPa 0,0 l/m 0 min 0 min 13 W/m 12,6 km/h (3 Bft) 95,74 %
22.03.2016 06:54 4,3 C 4,4 C 3,3 C 95 % 1 lf 1015,1 hPa 0,0 l/m 0 min 0 min 16 W/m 14,6 km/h (3 Bft) 89,36 %
22.03.2016 06:56 4,3 C 4,4 C 3,3 C 95 % 1 lf 1015,1 hPa 0,0 l/m 0 min 0 min 19 W/m 10,5 km/h (2 Bft) 97,87 %
22.03.2016 06:58 4,3 C 4,4 C 3,3 C 95 % 1 lf 1015,1 hPa 0,0 l/m 0 min 0 min 19 W/m 10,5 km/h (2 Bft) 97,83 %
22.03.2016 07:00 4,3 C 4,4 C 3,3 C 95 % 1 lf 1015,1 hPa 0,0 l/m 0 min 0 min 18 W/m 10,5 km/h (2 Bft) 97,87 %
22.03.2016 07:02 4,3 C 4,4 C 3,3 C 95 % 1 lf 1015,2 hPa 0,0 l/m 0 min 0 min 19 W/m 12,6 km/h (3 Bft) 93,62 %
22.03.2016 07:04 4,3 C 4,4 C 3,3 C 95 % 1 lf 1015,2 hPa 0,0 l/m 0 min 0 min 19 W/m 6,3 km/h (2 Bft) 95,74 %
22.03.2016 07:06 4,3 C 4,4 C 3,3 C 95 % 1 lf 1015,1 hPa 0,0 l/m 0 min 0 min 19 W/m 10,5 km/h (2 Bft) 97,87 %
22.03.2016 07:08 4,3 C 4,4 C 3,3 C 95 % 1 lf 1015,1 hPa 0,0 l/m 0 min 0 min 20 W/m 8,4 km/h (2 Bft) 95,74 %
22.03.2016 07:10 4,3 C 4,4 C 3,3 C 95 % 1 lf 1015,0 hPa 0,0 l/m 0 min 0 min 23 W/m 10,5 km/h (2 Bft) 95,65 %
22.03.2016 07:12 4,3 C 4,4 C 3,3 C 95 % 1 lf 1015,1 hPa 0,0 l/m 0 min 0 min 26 W/m 10,5 km/h (2 Bft) 91,49 %
22.03.2016 07:14 4,3 C 4,4 C 3,3 C 95 % 1 lf 1015,0 hPa 0,0 l/m 0 min 0 min 31 W/m 12,6 km/h (3 Bft) 95,74 %
22.03.2016 07:16 4,3 C 5,0 C 3,3 C 95 % 1 lf 1015,1 hPa 0,0 l/m 0 min 0 min 33 W/m 8,4 km/h (2 Bft) 95,74 %
22.03.2016 07:18 4,4 C 5,0 C 3,3 C 95 % 1 lf 1015,0 hPa 0,0 l/m 0 min 0 min 35 W/m 10,5 km/h (2 Bft) 95,74 %
22.03.2016 07:20 4,3 C 5,0 C 3,3 C 95 % 1 lf 1015,0 hPa 0,0 l/m 0 min 0 min 39 W/m 10,5 km/h (2 Bft) 93,62 %
22.03.2016 07:22 4,3 C 5,0 C 3,3 C 95 % 1 lf 1015,0 hPa 0,0 l/m 0 min 0 min 44 W/m 16,7 km/h (3 Bft) 95,65 %
22.03.2016 07:24 4,4 C 5,0 C 3,3 C 95 % 1 lf 1015,1 hPa 0,0 l/m 0 min 0 min 51 W/m 6,3 km/h (2 Bft) 95,74 %
22.03.2016 07:26 4,4 C 5,0 C 3,3 C 95 % 1 lf 1015,1 hPa 0,0 l/m 0 min 0 min 61 W/m 8,4 km/h (2 Bft) 95,74 %
22.03.2016 07:28 4,4 C 5,0 C 3,9 C 95 % 1 lf 1015,1 hPa 0,0 l/m 2 min 0 min 72 W/m 14,6 km/h (3 Bft) 95,74 %
22.03.2016 07:30 4,4 C 5,0 C 3,9 C 95 % 1 lf 1015,1 hPa 0,0 l/m 2 min 0 min 85 W/m 12,6 km/h (3 Bft) 95,74 %
22.03.2016 07:32 4,4 C 5,6 C 3,9 C 95 % 1 lf 1015,1 hPa 0,0 l/m 2 min 0 min 99 W/m 12,6 km/h (3 Bft) 92,31 %
22.03.2016 07:34 4,4 C 5,6 C 3,9 C 96 % 1 lf 1015,1 hPa 0,0 l/m 2 min 0 min 114 W/m 8,4 km/h (2 Bft) 95,74 %
22.03.2016 07:36 4,4 C 6,1 C 4,4 C 96 % 0 lf 1015,1 hPa 0,0 l/m 2 min 0 min 121 W/m 16,7 km/h (3 Bft) 92,00 %
22.03.2016 07:38 4,5 C 6,1 C 4,4 C 96 % 0 lf 1015,1 hPa 0,0 l/m 2 min 0 min 131 W/m 8,4 km/h (2 Bft) 89,36 %
22.03.2016 07:40 4,6 C 6,1 C 4,4 C 96 % 0 lf 1015,1 hPa 0,0 l/m 2 min 0 min 92 W/m 20,9 km/h (4 Bft) 93,62 %
22.03.2016 07:42 4,6 C 6,1 C 4,4 C 96 % 0 lf 1015,1 hPa 0,0 l/m 0 min 0 min 86 W/m 14,6 km/h (3 Bft) 93,48 %
22.03.2016 07:44 4,6 C 6,1 C 4,4 C 96 % 0 lf 1015,1 hPa 0,0 l/m 2 min 0 min 99 W/m 16,7 km/h (3 Bft) 93,62 %
22.03.2016 07:46 4,7 C 6,1 C 4,4 C 96 % 0 lf 1015,1 hPa 0,0 l/m 0 min 0 min 75 W/m 12,6 km/h (3 Bft) 91,49 %
22.03.2016 07:48 4,7 C 6,1 C 4,4 C 96 % 0 lf 1015,1 hPa 0,0 l/m 0 min 0 min 67 W/m 16,7 km/h (3 Bft) 97,87 %
22.03.2016 07:50 4,7 C 5,6 C 4,4 C 96 % 0 lf 1015,1 hPa 0,0 l/m 0 min 0 min 59 W/m 12,6 km/h (3 Bft) 93,62 %
22.03.2016 07:52 4,7 C 5,6 C 4,4 C 96 % 0 lf 1015,1 hPa 0,0 l/m 0 min 0 min 49 W/m 12,6 km/h (3 Bft) 95,74 %
22.03.2016 07:54 4,7 C 5,6 C 4,4 C 96 % 0 lf 1015,1 hPa 0,0 l/m 0 min 0 min 54 W/m 12,6 km/h (3 Bft) 93,48 %
22.03.2016 07:56 4,7 C 5,6 C 4,4 C 96 % 0 lf 1014,9 hPa 0,0 l/m 0 min 0 min 65 W/m 16,7 km/h (3 Bft) 95,74 %
22.03.2016 07:58 4,8 C 5,6 C 4,4 C 96 % 0 lf 1015,0 hPa 0,0 l/m 0 min 0 min 63 W/m 10,5 km/h (2 Bft) 91,49 %
22.03.2016 08:00 4,7 C 5,6 C 3,9 C 96 % 0 lf 1014,9 hPa 0,0 l/m 0 min 0 min 56 W/m 10,5 km/h (2 Bft) 93,62 %
22.03.2016 08:03 4,8 C 5,6 C 3,9 C 96 % 0 lf 1015,0 hPa 0,0 l/m 0 min 0 min 75 W/m 12,6 km/h (3 Bft) 94,52 %
22.03.2016 08:04 4,8 C 5,6 C 3,9 C 96 % 0 lf 1015,0 hPa 0,0 l/m 0 min 0 min 96 W/m 10,5 km/h (2 Bft) 91,67 %
22.03.2016 08:06 4,8 C 6,1 C 4,4 C 96 % 0 lf 1014,9 hPa 0,0 l/m 0 min 0 min 113 W/m 8,4 km/h (2 Bft) 96,00 %
22.03.2016 08:08 4,8 C 6,7 C 4,4 C 96 % 0 lf 1014,9 hPa 0,0 l/m 2 min 0 min 161 W/m 10,5 km/h (2 Bft) 95,65 %
22.03.2016 08:10 4,8 C 7,2 C 4,4 C 95 % 0 lf 1014,9 hPa 0,0 l/m 2 min 0 min 179 W/m 8,4 km/h (2 Bft) 93,62 %
22.03.2016 08:12 4,8 C 7,2 C 5,0 C 96 % 0 lf 1014,8 hPa 0,0 l/m 2 min 0 min 164 W/m 12,6 km/h (3 Bft) 93,62 %
22.03.2016 08:14 4,9 C 7,8 C 5,0 C 96 % 0 lf 1014,8 hPa 0,0 l/m 2 min 0 min 158 W/m 12,6 km/h (3 Bft) 91,49 %
22.03.2016 08:16 4,9 C 7,8 C 5,0 C 96 % 0 lf 1014,8 hPa 0,0 l/m 2 min 0 min 140 W/m 8,4 km/h (2 Bft) 95,74 %
22.03.2016 08:18 5,0 C 7,8 C 5,6 C 96 % 0 lf 1014,8 hPa 0,0 l/m 0 min 0 min 122 W/m 16,7 km/h (3 Bft) 97,87 %
22.03.2016 08:20 5,1 C 7,8 C 5,0 C 96 % 0 lf 1014,9 hPa 0,0 l/m 0 min 0 min 115 W/m 12,6 km/h (3 Bft) 97,83 %
22.03.2016 08:22 5,1 C 7,2 C 5,0 C 96 % 0 lf 1014,8 hPa 0,0 l/m 0 min 0 min 117 W/m 16,7 km/h (3 Bft) 95,74 %
22.03.2016 08:24 5,1 C 7,2 C 5,0 C 96 % 0 lf 1014,9 hPa 0,0 l/m 0 min 0 min 137 W/m 12,6 km/h (3 Bft) 97,87 %
22.03.2016 08:26 5,2 C 7,2 C 5,0 C 96 % 0 lf 1014,8 hPa 0,0 l/m 0 min 0 min 129 W/m 14,6 km/h (3 Bft) 97,87 %
22.03.2016 08:28 5,2 C 7,2 C 5,6 C 96 % 0 lf 1014,7 hPa 0,0 l/m 0 min 0 min 141 W/m 10,5 km/h (2 Bft) 100,00 %
22.03.2016 08:30 5,3 C 7,8 C 5,6 C 96 % 0 lf 1014,8 hPa 0,0 l/m 2 min 0 min 209 W/m 14,6 km/h (3 Bft) 95,74 %
22.03.2016 08:32 5,3 C 7,8 C 5,6 C 96 % 0 lf 1014,8 hPa 0,0 l/m 2 min 0 min 171 W/m 18,8 km/h (3 Bft) 92,31 %
22.03.2016 08:34 5,3 C 7,8 C 5,6 C 96 % 0 lf 1014,8 hPa 0,0 l/m 0 min 0 min 151 W/m 16,7 km/h (3 Bft) 97,87 %
22.03.2016 08:36 5,4 C 7,8 C 5,6 C 96 % 0 lf 1014,8 hPa 0,0 l/m 0 min 0 min 141 W/m 12,6 km/h (3 Bft) 97,37 %
22.03.2016 08:38 5,4 C 7,8 C 5,6 C 95 % 0 lf 1014,8 hPa 0,0 l/m 0 min 0 min 149 W/m 12,6 km/h (3 Bft) 100,00 %
22.03.2016 08:40 5,4 C 7,8 C 6,1 C 95 % 0 lf 1014,8 hPa 0,0 l/m 2 min 0 min 176 W/m 12,6 km/h (3 Bft) 97,87 %
22.03.2016 08:42 5,5 C 7,8 C 6,1 C 96 % 0 lf 1014,8 hPa 0,0 l/m 2 min 0 min 183 W/m 14,6 km/h (3 Bft) 95,74 %
22.03.2016 08:44 5,6 C 7,8 C 6,1 C 95 % 0 lf 1014,8 hPa 0,0 l/m 0 min 0 min 163 W/m 16,7 km/h (3 Bft) 95,65 %
22.03.2016 08:46 5,6 C 8,3 C 6,1 C 95 % 0 lf 1014,8 hPa 0,0 l/m 0 min 0 min 143 W/m 14,6 km/h (3 Bft) 100,00 %
22.03.2016 08:48 5,6 C 8,3 C 6,1 C 95 % 0 lf 1014,8 hPa 0,0 l/m 2 min 0 min 176 W/m 16,7 km/h (3 Bft) 95,74 %
22.03.2016 08:50 5,7 C 8,3 C 6,1 C 95 % 0 lf 1014,8 hPa 0,0 l/m 0 min 0 min 165 W/m 16,7 km/h (3 Bft) 100,00 %
22.03.2016 08:52 5,7 C 8,3 C 6,1 C 95 % 0 lf 1014,7 hPa 0,0 l/m 0 min 0 min 169 W/m 10,5 km/h (2 Bft) 97,87 %
22.03.2016 08:54 5,8 C 8,3 C 6,7 C 95 % 0 lf 1014,8 hPa 0,0 l/m 2 min 0 min 178 W/m 12,6 km/h (3 Bft) 97,87 %
22.03.2016 08:56 5,8 C 8,3 C 6,1 C 95 % 0 lf 1014,7 hPa 0,0 l/m 0 min 0 min 159 W/m 12,6 km/h (3 Bft) 97,83 %
22.03.2016 08:58 5,8 C 8,3 C 6,1 C 95 % 0 lf 1014,7 hPa 0,0 l/m 0 min 0 min 148 W/m 18,8 km/h (3 Bft) 95,74 %
22.03.2016 09:00 5,8 C 8,3 C 6,1 C 95 % 0 lf 1014,7 hPa 0,0 l/m 0 min 0 min 129 W/m 14,6 km/h (3 Bft) 97,87 %
22.03.2016 09:02 5,9 C 8,3 C 6,1 C 94 % 0 lf 1014,7 hPa 0,0 l/m 0 min 0 min 146 W/m 14,6 km/h (3 Bft) 95,74 %
22.03.2016 09:04 5,9 C 8,9 C 6,1 C 94 % 0 lf 1014,7 hPa 0,0 l/m 2 min 0 min 202 W/m 12,6 km/h (3 Bft) 93,62 %
22.03.2016 09:06 6,0 C 11,7 C 9,4 C 94 % 0 lf 1014,6 hPa 0,0 l/m 2 min 0 min 396 W/m 10,5 km/h (2 Bft) 91,84 %
22.03.2016 09:08 6,1 C 12,8 C 10,0 C 94 % 0 lf 1014,6 hPa 0,0 l/m 2 min 0 min 464 W/m 14,6 km/h (3 Bft) 93,62 %
22.03.2016 09:10 6,2 C 12,8 C 9,4 C 94 % 0 lf 1014,6 hPa 0,0 l/m 2 min 0 min 464 W/m 18,8 km/h (3 Bft) 93,62 %
22.03.2016 09:12 6,2 C 11,7 C 8,9 C 94 % 0 lf 1014,6 hPa 0,0 l/m 0 min 0 min 144 W/m 10,5 km/h (2 Bft) 95,74 %
22.03.2016 09:14 6,3 C 11,1 C 8,3 C 94 % 0 lf 1014,6 hPa 0,0 l/m 2 min 0 min 204 W/m 10,5 km/h (2 Bft) 93,62 %
22.03.2016 09:16 6,4 C 12,2 C 9,4 C 94 % 0 lf 1014,6 hPa 0,0 l/m 2 min 0 min 399 W/m 16,7 km/h (3 Bft) 95,74 %
22.03.2016 09:18 6,5 C 13,9 C 10,6 C 94 % 0 lf 1014,6 hPa 0,0 l/m 2 min 0 min 487 W/m 12,6 km/h (3 Bft) 95,65 %
22.03.2016 09:20 6,6 C 14,4 C 11,1 C 94 % 0 lf 1014,6 hPa 0,0 l/m 2 min 0 min 456 W/m 10,5 km/h (2 Bft) 95,74 %
22.03.2016 09:22 6,8 C 14,4 C 11,1 C 93 % 0 lf 1014,6 hPa 0,0 l/m 2 min 0 min 320 W/m 14,6 km/h (3 Bft) 95,74 %
22.03.2016 09:24 6,9 C 13,3 C 10,0 C 94 % 0 lf 1014,7 hPa 0,0 l/m 2 min 0 min 301 W/m 18,8 km/h (3 Bft) 93,62 %
22.03.2016 09:26 7,0 C 12,8 C 8,9 C 93 % 0 lf 1014,7 hPa 0,0 l/m 2 min 0 min 255 W/m 12,6 km/h (3 Bft) 95,74 %
22.03.2016 09:28 7,1 C 12,8 C 8,9 C 93 % 0 lf 1014,7 hPa 0,0 l/m 2 min 0 min 262 W/m 18,8 km/h (3 Bft) 93,62 %
22.03.2016 09:30 7,2 C 12,8 C 9,4 C 92 % 0 lf 1014,6 hPa 0,0 l/m 2 min 0 min 247 W/m 12,6 km/h (3 Bft) 97,83 %
22.03.2016 09:32 7,3 C 12,2 C 8,9 C 92 % 0 lf 1014,6 hPa 0,0 l/m 0 min 0 min 215 W/m 10,5 km/h (2 Bft) 97,87 %
22.03.2016 09:34 7,3 C 13,3 C 9,4 C 92 % 0 lf 1014,6 hPa 0,0 l/m 2 min 0 min 264 W/m 14,6 km/h (3 Bft) 95,74 %
22.03.2016 09:36 7,4 C 13,9 C 10,0 C 91 % 0 lf 1014,7 hPa 0,0 l/m 2 min 0 min 267 W/m 12,6 km/h (3 Bft) 93,62 %
22.03.2016 09:38 7,6 C 13,9 C 10,0 C 91 % 0 lf 1014,6 hPa 0,0 l/m 2 min 0 min 306 W/m 16,7 km/h (3 Bft) 93,62 %
22.03.2016 09:40 7,6 C 12,8 C 9,4 C 90 % 0 lf 1014,6 hPa 0,0 l/m 2 min 0 min 329 W/m 20,9 km/h (4 Bft) 93,62 %
22.03.2016 09:42 7,7 C 11,7 C 8,9 C 89 % 0 lf 1014,6 hPa 0,0 l/m 0 min 0 min 201 W/m 14,6 km/h (3 Bft) 95,65 %
22.03.2016 09:44 7,7 C 11,1 C 8,3 C 89 % 0 lf 1014,6 hPa 0,0 l/m 0 min 0 min 153 W/m 14,6 km/h (3 Bft) 91,49 %
22.03.2016 09:46 7,8 C 10,6 C 7,8 C 88 % 0 lf 1014,6 hPa 0,0 l/m 0 min 0 min 156 W/m 16,7 km/h (3 Bft) 95,74 %
22.03.2016 09:48 7,8 C 10,0 C 7,8 C 88 % 0 lf 1014,6 hPa 0,0 l/m 0 min 0 min 168 W/m 12,6 km/h (3 Bft) 95,74 %
22.03.2016 09:50 7,8 C 10,6 C 7,8 C 87 % 0 lf 1014,6 hPa 0,0 l/m 0 min 0 min 171 W/m 12,6 km/h (3 Bft) 97,87 %
22.03.2016 09:52 7,9 C 10,6 C 8,3 C 87 % 0 lf 1014,6 hPa 0,0 l/m 0 min 0 min 225 W/m 18,8 km/h (3 Bft) 97,83 %
22.03.2016 09:54 7,9 C 11,1 C 8,3 C 87 % 0 lf 1014,6 hPa 0,0 l/m 2 min 0 min 244 W/m 16,7 km/h (3 Bft) 95,74 %
22.03.2016 09:56 7,9 C 10,6 C 8,3 C 86 % 0 lf 1014,6 hPa 0,0 l/m 0 min 0 min 227 W/m 14,6 km/h (3 Bft) 95,74 %
22.03.2016 09:58 7,9 C 10,6 C 8,3 C 86 % 0 lf 1014,6 hPa 0,0 l/m 0 min 0 min 168 W/m 18,8 km/h (3 Bft) 100,00 %
22.03.2016 10:00 8,0 C 11,1 C 8,3 C 85 % 0 lf 1014,5 hPa 0,0 l/m 2 min 0 min 263 W/m 18,8 km/h (3 Bft) 100,00 %
22.03.2016 10:02 8,1 C 15,0 C 10,0 C 85 % 0 lf 1014,5 hPa 0,0 l/m 2 min 0 min 302 W/m 12,6 km/h (3 Bft) 95,74 %
22.03.2016 10:04 8,2 C 16,1 C 11,7 C 86 % 0 lf 1014,6 hPa 0,0 l/m 2 min 0 min 744 W/m 14,6 km/h (3 Bft) 97,87 %
22.03.2016 10:06 8,3 C 14,4 C 11,1 C 86 % 0 lf 1014,6 hPa 0,0 l/m 2 min 0 min 431 W/m 14,6 km/h (3 Bft) 97,83 %
22.03.2016 10:08 8,4 C 13,9 C 10,6 C 85 % 0 lf 1014,6 hPa 0,0 l/m 0 min 0 min 223 W/m 16,7 km/h (3 Bft) 97,87 %
22.03.2016 10:10 8,4 C 13,3 C 10,0 C 85 % 0 lf 1014,6 hPa 0,0 l/m 2 min 0 min 261 W/m 14,6 km/h (3 Bft) 97,87 %
22.03.2016 10:12 8,6 C 12,8 C 10,6 C 85 % 0 lf 1014,6 hPa 0,0 l/m 2 min 0 min 321 W/m 16,7 km/h (3 Bft) 97,87 %
22.03.2016 10:14 8,7 C 12,8 C 10,0 C 84 % 0 lf 1014,6 hPa 0,0 l/m 0 min 0 min 245 W/m 18,8 km/h (3 Bft) 97,87 %
22.03.2016 10:16 8,7 C 12,2 C 9,4 C 84 % 0 lf 1014,6 hPa 0,0 l/m 0 min 0 min 204 W/m 14,6 km/h (3 Bft) 97,83 %
22.03.2016 10:18 8,8 C 14,4 C 11,1 C 84 % 0 lf 1014,6 hPa 0,0 l/m 2 min 0 min 281 W/m 16,7 km/h (3 Bft) 100,00 %
22.03.2016 10:20 8,9 C 16,1 C 12,8 C 84 % 0 lf 1014,6 hPa 0,0 l/m 2 min 0 min 483 W/m 16,7 km/h (3 Bft) 97,87 %
22.03.2016 10:22 9,0 C 16,1 C 12,2 C 84 % 0 lf 1014,6 hPa 0,0 l/m 2 min 0 min 499 W/m 12,6 km/h (3 Bft) 95,74 %
22.03.2016 10:24 9,1 C 15,6 C 11,1 C 84 % 0 lf 1014,6 hPa 0,0 l/m 0 min 0 min 243 W/m 16,7 km/h (3 Bft) 97,87 %
22.03.2016 10:26 9,2 C 14,4 C 10,6 C 83 % 0 lf 1014,6 hPa 0,0 l/m 0 min 0 min 202 W/m 18,8 km/h (3 Bft) 94,23 %
22.03.2016 10:28 9,3 C 15,0 C 10,6 C 83 % 0 lf 1014,5 hPa 0,0 l/m 2 min 0 min 294 W/m 18,8 km/h (3 Bft) 97,87 %
22.03.2016 10:30 9,3 C 15,6 C 11,7 C 83 % 0 lf 1014,5 hPa 0,0 l/m 2 min 0 min 404 W/m 14,6 km/h (3 Bft) 95,74 %
22.03.2016 10:32 9,4 C 17,2 C 12,8 C 82 % 0 lf 1014,5 hPa 0,0 l/m 2 min 0 min 433 W/m 12,6 km/h (3 Bft) 97,92 %
22.03.2016 10:34 9,4 C 16,1 C 12,2 C 82 % 0 lf 1014,4 hPa 0,0 l/m 2 min 0 min 336 W/m 14,6 km/h (3 Bft) 97,87 %
22.03.2016 10:36 9,5 C 16,1 C 11,7 C 82 % 0 lf 1014,4 hPa 0,0 l/m 0 min 0 min 265 W/m 12,6 km/h (3 Bft) 97,37 %
22.03.2016 10:38 9,6 C 16,7 C 12,2 C 82 % 0 lf 1014,4 hPa 0,0 l/m 2 min 0 min 348 W/m 18,8 km/h (3 Bft) 95,74 %
22.03.2016 10:40 9,6 C 16,1 C 11,1 C 81 % 0 lf 1014,4 hPa 0,0 l/m 2 min 0 min 454 W/m 14,6 km/h (3 Bft) 95,65 %
22.03.2016 10:42 9,7 C 15,6 C 11,7 C 81 % 0 lf 1014,4 hPa 0,0 l/m 2 min 0 min 432 W/m 14,6 km/h (3 Bft) 95,74 %
22.03.2016 10:44 9,7 C 15,6 C 11,1 C 81 % 0 lf 1014,4 hPa 0,0 l/m 2 min 0 min 279 W/m 6,3 km/h (2 Bft) 95,74 %
22.03.2016 10:46 9,7 C 15,0 C 10,6 C 81 % 0 lf 1014,4 hPa 0,0 l/m 0 min 0 min 228 W/m 10,5 km/h (2 Bft) 100,00 %
22.03.2016 10:48 9,8 C 15,6 C 10,6 C 81 % 0 lf 1014,3 hPa 0,0 l/m 2 min 0 min 281 W/m 10,5 km/h (2 Bft) 89,36 %
22.03.2016 10:50 9,8 C 15,6 C 11,1 C 81 % 0 lf 1014,4 hPa 0,0 l/m 2 min 0 min 306 W/m 14,6 km/h (3 Bft) 95,74 %
22.03.2016 10:52 9,9 C 17,2 C 12,2 C 81 % 0 lf 1014,3 hPa 0,0 l/m 0 min 0 min 279 W/m 14,6 km/h (3 Bft) 95,74 %
22.03.2016 10:54 9,9 C 16,7 C 11,7 C 81 % 0 lf 1014,4 hPa 0,0 l/m 0 min 0 min 269 W/m 16,7 km/h (3 Bft) 93,62 %
22.03.2016 10:56 10,0 C 16,7 C 12,2 C 81 % 0 lf 1014,3 hPa 0,0 l/m 2 min 0 min 292 W/m 16,7 km/h (3 Bft) 93,62 %
22.03.2016 10:58 10,1 C 16,7 C 11,7 C 81 % 0 lf 1014,3 hPa 0,0 l/m 2 min 0 min 317 W/m 14,6 km/h (3 Bft) 93,62 %
22.03.2016 11:00 10,1 C 17,2 C 12,8 C 80 % 0 lf 1014,2 hPa 0,0 l/m 2 min 0 min 346 W/m 23,0 km/h (4 Bft) 93,62 %
22.03.2016 11:02 10,2 C 18,3 C 15,0 C 80 % 0 lf 1014,2 hPa 0,0 l/m 2 min 0 min 661 W/m 12,6 km/h (3 Bft) 91,49 %
22.03.2016 11:04 10,3 C 20,0 C 15,6 C 80 % 0 lf 1014,2 hPa 0,0 l/m 2 min 0 min 738 W/m 14,6 km/h (3 Bft) 93,62 %
22.03.2016 11:06 10,4 C 21,1 C 16,7 C 81 % 0 lf 1014,2 hPa 0,0 l/m 2 min 0 min 840 W/m 16,7 km/h (3 Bft) 93,62 %
22.03.2016 11:08 10,6 C 18,9 C 14,4 C 80 % 0 lf 1014,2 hPa 0,0 l/m 2 min 0 min 568 W/m 18,8 km/h (3 Bft) 93,62 %
22.03.2016 11:10 10,6 C 18,9 C 15,0 C 80 % 0 lf 1014,2 hPa 0,0 l/m 2 min 0 min 329 W/m 14,6 km/h (3 Bft) 95,74 %
22.03.2016 11:12 10,8 C 19,4 C 15,0 C 80 % 0 lf 1014,2 hPa 0,0 l/m 2 min 0 min 422 W/m 16,7 km/h (3 Bft) 89,36 %
22.03.2016 11:14 10,9 C 19,4 C 13,9 C 79 % 0 lf 1014,2 hPa 0,0 l/m 2 min 0 min 600 W/m 16,7 km/h (3 Bft) 95,74 %
22.03.2016 11:16 10,9 C 17,8 C 13,3 C 79 % 0 lf 1014,2 hPa 0,0 l/m 2 min 0 min 416 W/m 25,1 km/h (4 Bft) 93,48 %
22.03.2016 11:18 11,0 C 16,1 C 12,2 C 77 % 0 lf 1014,2 hPa 0,0 l/m 2 min 0 min 305 W/m 23,0 km/h (4 Bft) 95,74 %
22.03.2016 11:20 11,1 C 15,6 C 12,2 C 77 % 0 lf 1014,2 hPa 0,0 l/m 2 min 0 min 334 W/m 18,8 km/h (3 Bft) 95,74 %
22.03.2016 11:22 11,1 C 15,0 C 11,7 C 77 % 0 lf 1014,2 hPa 0,0 l/m 2 min 0 min 322 W/m 18,8 km/h (3 Bft) 95,74 %
22.03.2016 11:24 11,1 C 15,0 C 11,7 C 77 % 0 lf 1014,1 hPa 0,0 l/m 0 min 0 min 274 W/m 25,1 km/h (4 Bft) 93,62 %
22.03.2016 11:26 11,2 C 13,9 C 11,1 C 77 % 0 lf 1014,2 hPa 0,0 l/m 0 min 0 min 219 W/m 18,8 km/h (3 Bft) 95,65 %
22.03.2016 11:28 11,1 C 13,3 C 10,6 C 76 % 0 lf 1014,2 hPa 0,0 l/m 0 min 0 min 215 W/m 18,8 km/h (3 Bft) 97,87 %
22.03.2016 11:30 11,1 C 12,8 C 10,6 C 75 % 0 lf 1014,2 hPa 0,0 l/m 0 min 0 min 231 W/m 20,9 km/h (4 Bft) 93,62 %
22.03.2016 11:32 11,0 C 12,8 C 10,6 C 75 % 0 lf 1014,2 hPa 0,0 l/m 0 min 0 min 249 W/m 14,6 km/h (3 Bft) 95,83 %
22.03.2016 11:34 10,9 C 12,8 C 10,6 C 76 % 0 lf 1014,2 hPa 0,0 l/m 0 min 0 min 264 W/m 14,6 km/h (3 Bft) 95,74 %
22.03.2016 11:36 10,9 C 12,8 C 10,6 C 76 % 0 lf 1014,2 hPa 0,0 l/m 0 min 0 min 242 W/m 16,7 km/h (3 Bft) 95,92 %
22.03.2016 11:38 10,9 C 12,8 C 10,6 C 76 % 0 lf 1014,2 hPa 0,0 l/m 0 min 0 min 199 W/m 18,8 km/h (3 Bft) 93,48 %
22.03.2016 11:40 10,8 C 12,8 C 10,6 C 77 % 0 lf 1014,1 hPa 0,0 l/m 0 min 0 min 201 W/m 10,5 km/h (2 Bft) 100,00 %
22.03.2016 11:42 10,8 C 12,2 C 10,0 C 77 % 0 lf 1014,1 hPa 0,0 l/m 0 min 0 min 169 W/m 23,0 km/h (4 Bft) 97,87 %
22.03.2016 11:44 10,8 C 12,2 C 10,0 C 77 % 0 lf 1014,1 hPa 0,0 l/m 0 min 0 min 146 W/m 18,8 km/h (3 Bft) 95,74 %
22.03.2016 11:46 10,8 C 12,2 C 10,0 C 77 % 0 lf 1014,1 hPa 0,0 l/m 0 min 0 min 164 W/m 12,6 km/h (3 Bft) 97,87 %
22.03.2016 11:48 10,7 C 12,2 C 10,0 C 77 % 0 lf 1014,1 hPa 0,0 l/m 0 min 0 min 177 W/m 18,8 km/h (3 Bft) 89,13 %
22.03.2016 11:50 10,7 C 12,2 C 10,0 C 77 % 0 lf 1014,1 hPa 0,0 l/m 0 min 0 min 253 W/m 20,9 km/h (4 Bft) 97,87 %
22.03.2016 11:52 10,7 C 13,3 C 11,1 C 77 % 0 lf 1014,1 hPa 0,0 l/m 2 min 0 min 400 W/m 12,6 km/h (3 Bft) 100,00 %
22.03.2016 11:54 10,7 C 13,3 C 11,1 C 77 % 0 lf 1014,1 hPa 0,0 l/m 2 min 0 min 349 W/m 23,0 km/h (4 Bft) 100,00 %
22.03.2016 11:56 10,7 C 13,3 C 11,1 C 76 % 0 lf 1014,1 hPa 0,0 l/m 2 min 0 min 338 W/m 23,0 km/h (4 Bft) 100,00 %
22.03.2016 11:58 10,7 C 13,3 C 11,7 C 77 % 0 lf 1014,1 hPa 0,0 l/m 0 min 0 min 287 W/m 16,7 km/h (3 Bft) 93,62 %
22.03.2016 12:00 10,7 C 13,3 C 11,1 C 77 % 0 lf 1014,1 hPa 0,0 l/m 0 min 0 min 261 W/m 27,2 km/h (4 Bft) 97,83 %
22.03.2016 12:02 10,7 C 12,8 C 11,1 C 77 % 0 lf 1014,1 hPa 0,0 l/m 0 min 0 min 224 W/m 16,7 km/h (3 Bft) 93,62 %
22.03.2016 12:04 10,7 C 12,2 C 10,0 C 76 % 0 lf 1014,1 hPa 0,0 l/m 0 min 0 min 196 W/m 18,8 km/h (3 Bft) 95,74 %
22.03.2016 12:06 10,7 C 12,2 C 10,0 C 76 % 0 lf 1014,1 hPa 0,0 l/m 0 min 0 min 117 W/m 20,9 km/h (4 Bft) 97,87 %
22.03.2016 12:08 10,7 C 11,7 C 9,4 C 76 % 0 lf 1014,1 hPa 0,0 l/m 0 min 0 min 73 W/m 20,9 km/h (4 Bft) 100,00 %
22.03.2016 12:10 10,7 C 11,1 C 9,4 C 76 % 0 lf 1014,1 hPa 0,0 l/m 0 min 0 min 58 W/m 25,1 km/h (4 Bft) 97,87 %
22.03.2016 12:12 10,6 C 10,6 C 8,9 C 76 % 0 lf 1014,2 hPa 0,0 l/m 0 min 0 min 53 W/m 25,1 km/h (4 Bft) 97,14 %
22.03.2016 12:14 10,5 C 10,6 C 8,9 C 76 % 0 lf 1014,2 hPa 0,0 l/m 0 min 0 min 53 W/m 20,9 km/h (4 Bft) 89,36 %
22.03.2016 12:16 10,4 C 10,6 C 8,9 C 76 % 0 lf 1014,2 hPa 0,0 l/m 0 min 0 min 52 W/m 20,9 km/h (4 Bft) 98,28 %
22.03.2016 12:18 10,3 C 10,6 C 8,9 C 76 % 0 lf 1014,1 hPa 0,0 l/m 0 min 0 min 58 W/m 20,9 km/h (4 Bft) 97,87 %
22.03.2016 12:20 10,3 C 10,0 C 8,9 C 76 % 0 lf 1014,2 hPa 0,0 l/m 0 min 0 min 63 W/m 16,7 km/h (3 Bft) 95,74 %
22.03.2016 12:22 10,2 C 10,0 C 8,9 C 77 % 0 lf 1014,2 hPa 0,0 l/m 0 min 0 min 73 W/m 10,5 km/h (2 Bft) 97,14 %
22.03.2016 12:24 10,2 C 10,6 C 8,9 C 77 % 0 lf 1014,1 hPa 0,0 l/m 0 min 0 min 90 W/m 12,6 km/h (3 Bft) 96,23 %
22.03.2016 12:26 10,1 C 10,6 C 8,9 C 77 % 0 lf 1014,1 hPa 0,0 l/m 0 min 0 min 119 W/m 16,7 km/h (3 Bft) 97,83 %
22.03.2016 12:28 10,1 C 11,1 C 9,4 C 78 % 0 lf 1014,1 hPa 0,0 l/m 0 min 0 min 155 W/m 14,6 km/h (3 Bft) 95,74 %
22.03.2016 12:30 10,1 C 11,1 C 9,4 C 78 % 0 lf 1014,1 hPa 0,0 l/m 0 min 0 min 172 W/m 12,6 km/h (3 Bft) 95,74 %
22.03.2016 12:32 10,1 C 11,7 C 9,4 C 78 % 0 lf 1014,1 hPa 0,0 l/m 0 min 0 min 183 W/m 14,6 km/h (3 Bft) 97,92 %
22.03.2016 12:34 10,1 C 11,7 C 9,4 C 78 % 0 lf 1014,1 hPa 0,0 l/m 0 min 0 min 195 W/m 23,0 km/h (4 Bft) 95,74 %
22.03.2016 12:36 10,1 C 11,7 C 9,4 C 78 % 0 lf 1014,1 hPa 0,0 l/m 0 min 0 min 166 W/m 20,9 km/h (4 Bft) 98,04 %
22.03.2016 12:38 10,0 C 11,1 C 9,4 C 78 % 0 lf 1014,0 hPa 0,0 l/m 0 min 0 min 111 W/m 16,7 km/h (3 Bft) 95,74 %
22.03.2016 12:40 10,1 C 11,1 C 9,4 C 78 % 0 lf 1014,0 hPa 0,0 l/m 0 min 0 min 90 W/m 16,7 km/h (3 Bft) 97,87 %
22.03.2016 12:42 10,0 C 11,1 C 9,4 C 78 % 0 lf 1014,0 hPa 0,0 l/m 0 min 0 min 113 W/m 14,6 km/h (3 Bft) 97,87 %
22.03.2016 12:44 10,0 C 11,1 C 9,4 C 78 % 0 lf 1014,0 hPa 0,0 l/m 0 min 0 min 133 W/m 12,6 km/h (3 Bft) 95,74 %
22.03.2016 12:46 10,0 C 11,1 C 9,4 C 78 % 0 lf 1014,0 hPa 0,0 l/m 0 min 0 min 146 W/m 16,7 km/h (3 Bft) 100,00 %
22.03.2016 12:48 10,0 C 11,1 C 9,4 C 78 % 0 lf 1014,0 hPa 0,0 l/m 0 min 0 min 158 W/m 12,6 km/h (3 Bft) 95,65 %
22.03.2016 12:50 10,0 C 11,7 C 9,4 C 78 % 0 lf 1014,0 hPa 0,0 l/m 0 min 0 min 228 W/m 10,5 km/h (2 Bft) 100,00 %
22.03.2016 12:52 10,0 C 12,2 C 10,0 C 78 % 0 lf 1014,0 hPa 0,0 l/m 0 min 0 min 314 W/m 14,6 km/h (3 Bft) 100,00 %
22.03.2016 12:54 10,0 C 13,3 C 10,0 C 78 % 0 lf 1014,0 hPa 0,0 l/m 2 min 0 min 376 W/m 14,6 km/h (3 Bft) 97,87 %
22.03.2016 12:56 10,1 C 13,9 C 10,6 C 78 % 0 lf 1014,0 hPa 0,0 l/m 2 min 0 min 320 W/m 10,5 km/h (2 Bft) 100,00 %
22.03.2016 12:58 10,1 C 13,9 C 10,6 C 79 % 0 lf 1014,0 hPa 0,0 l/m 0 min 0 min 304 W/m 12,6 km/h (3 Bft) 97,87 %
22.03.2016 13:00 10,2 C 14,4 C 10,6 C 78 % 0 lf 1014,0 hPa 0,0 l/m 0 min 0 min 299 W/m 12,6 km/h (3 Bft) 100,00 %
22.03.2016 13:02 10,2 C 14,4 C 10,6 C 78 % 0 lf 1014,0 hPa 0,0 l/m 0 min 0 min 238 W/m 14,6 km/h (3 Bft) 95,74 %
22.03.2016 13:04 10,3 C 13,9 C 10,6 C 78 % 0 lf 1013,9 hPa 0,0 l/m 0 min 0 min 184 W/m 10,5 km/h (2 Bft) 100,00 %
22.03.2016 13:06 10,3 C 13,3 C 10,6 C 78 % 0 lf 1013,8 hPa 0,0 l/m 0 min 0 min 220 W/m 14,6 km/h (3 Bft) 95,74 %
22.03.2016 13:08 10,3 C 13,3 C 10,6 C 78 % 0 lf 1013,7 hPa 0,0 l/m 0 min 0 min 252 W/m 10,5 km/h (2 Bft) 97,87 %
22.03.2016 13:10 10,4 C 13,9 C 10,6 C 78 % 0 lf 1013,8 hPa 0,0 l/m 0 min 0 min 270 W/m 12,6 km/h (3 Bft) 97,87 %
22.03.2016 13:12 10,4 C 13,9 C 10,6 C 78 % 0 lf 1013,8 hPa 0,0 l/m 0 min 0 min 211 W/m 14,6 km/h (3 Bft) 97,14 %
22.03.2016 13:14 10,5 C 14,4 C 10,6 C 78 % 0 lf 1013,7 hPa 0,0 l/m 0 min 0 min 288 W/m 14,6 km/h (3 Bft) 98,28 %
22.03.2016 13:16 10,5 C 15,6 C 10,6 C 78 % 0 lf 1013,7 hPa 0,0 l/m 2 min 0 min 372 W/m 14,6 km/h (3 Bft) 95,74 %
22.03.2016 13:18 10,6 C 17,2 C 11,1 C 78 % 0 lf 1013,7 hPa 0,0 l/m 2 min 0 min 430 W/m 12,6 km/h (3 Bft) 97,87 %
22.03.2016 13:20 10,7 C 18,9 C 11,7 C 79 % 0 lf 1013,7 hPa 0,0 l/m 2 min 0 min 469 W/m 12,6 km/h (3 Bft) 93,62 %
22.03.2016 13:22 10,9 C 18,9 C 11,1 C 78 % 0 lf 1013,6 hPa 0,0 l/m 2 min 0 min 442 W/m 16,7 km/h (3 Bft) 89,13 %
22.03.2016 13:24 11,0 C 19,4 C 11,1 C 78 % 0 lf 1013,6 hPa 0,0 l/m 2 min 0 min 402 W/m 10,5 km/h (2 Bft) 95,74 %
22.03.2016 13:26 11,1 C 18,9 C 11,7 C 78 % 0 lf 1013,5 hPa 0,0 l/m 2 min 0 min 353 W/m 14,6 km/h (3 Bft) 91,49 %
22.03.2016 13:28 11,2 C 18,3 C 11,7 C 77 % 0 lf 1013,6 hPa 0,0 l/m 2 min 0 min 316 W/m 14,6 km/h (3 Bft) 97,14 %
22.03.2016 13:30 11,3 C 20,0 C 11,7 C 77 % 0 lf 1013,6 hPa 0,0 l/m 0 min 0 min 301 W/m 14,6 km/h (3 Bft) 94,92 %
22.03.2016 13:32 11,5 C 19,4 C 11,7 C 77 % 0 lf 1013,5 hPa 0,0 l/m 2 min 0 min 366 W/m 16,7 km/h (3 Bft) 100,00 %
22.03.2016 13:34 11,6 C 19,4 C 12,2 C 76 % 0 lf 1013,4 hPa 0,0 l/m 0 min 0 min 288 W/m 10,5 km/h (2 Bft) 95,74 %
22.03.2016 13:36 11,7 C 18,9 C 12,2 C 77 % 0 lf 1013,4 hPa 0,0 l/m 2 min 0 min 333 W/m 16,7 km/h (3 Bft) 92,73 %
22.03.2016 13:38 11,7 C 19,4 C 12,2 C 75 % 0 lf 1013,3 hPa 0,0 l/m 2 min 0 min 367 W/m 12,6 km/h (3 Bft) 91,49 %
22.03.2016 13:40 11,8 C 18,3 C 12,2 C 75 % 0 lf 1013,3 hPa 0,0 l/m 2 min 0 min 332 W/m 14,6 km/h (3 Bft) 93,62 %
22.03.2016 13:42 11,9 C 16,7 C 12,2 C 75 % 0 lf 1013,4 hPa 0,0 l/m 0 min 0 min 277 W/m 20,9 km/h (4 Bft) 97,92 %
22.03.2016 13:44 11,9 C 16,1 C 11,7 C 74 % 0 lf 1013,3 hPa 0,0 l/m 0 min 0 min 226 W/m 14,6 km/h (3 Bft) 97,87 %
22.03.2016 13:46 12,0 C 15,6 C 11,7 C 74 % 0 lf 1013,3 hPa 0,0 l/m 0 min 0 min 242 W/m 16,7 km/h (3 Bft) 93,48 %
22.03.2016 13:48 12,0 C 16,7 C 11,7 C 73 % 0 lf 1013,3 hPa 0,0 l/m 2 min 0 min 345 W/m 14,6 km/h (3 Bft) 95,74 %
22.03.2016 13:50 12,1 C 16,7 C 12,2 C 73 % 0 lf 1013,3 hPa 0,0 l/m 2 min 0 min 336 W/m 12,6 km/h (3 Bft) 95,74 %
22.03.2016 13:52 12,1 C 16,1 C 12,2 C 74 % 0 lf 1013,3 hPa 0,0 l/m 2 min 0 min 316 W/m 18,8 km/h (3 Bft) 95,83 %
22.03.2016 13:54 12,1 C 15,6 C 11,7 C 73 % 0 lf 1013,2 hPa 0,0 l/m 0 min 0 min 260 W/m 18,8 km/h (3 Bft) 93,62 %
22.03.2016 13:56 12,1 C 14,4 C 11,7 C 73 % 0 lf 1013,2 hPa 0,0 l/m 0 min 0 min 178 W/m 18,8 km/h (3 Bft) 91,49 %
22.03.2016 13:58 12,1 C 13,9 C 11,1 C 72 % 0 lf 1013,2 hPa 0,0 l/m 0 min 0 min 128 W/m 25,1 km/h (4 Bft) 97,83 %
22.03.2016 14:00 12,0 C 12,8 C 10,6 C 72 % 0 lf 1013,1 hPa 0,0 l/m 0 min 0 min 136 W/m 23,0 km/h (4 Bft) 93,62 %
22.03.2016 14:02 11,9 C 12,8 C 10,6 C 72 % 0 lf 1013,1 hPa 0,0 l/m 0 min 0 min 144 W/m 23,0 km/h (4 Bft) 95,74 %
22.03.2016 14:04 11,9 C 12,8 C 10,6 C 72 % 0 lf 1013,1 hPa 0,0 l/m 0 min 0 min 150 W/m 16,7 km/h (3 Bft) 95,74 %
22.03.2016 14:06 11,9 C 12,8 C 11,1 C 72 % 0 lf 1013,1 hPa 0,0 l/m 0 min 0 min 166 W/m 18,8 km/h (3 Bft) 95,74 %
22.03.2016 14:08 11,8 C 13,3 C 11,1 C 72 % 0 lf 1013,0 hPa 0,0 l/m 0 min 0 min 208 W/m 14,6 km/h (3 Bft) 93,62 %
22.03.2016 14:10 11,8 C 13,3 C 11,7 C 73 % 0 lf 1013,0 hPa 0,0 l/m 0 min 0 min 241 W/m 18,8 km/h (3 Bft) 95,65 %
22.03.2016 14:12 11,8 C 13,9 C 11,7 C 73 % 0 lf 1013,0 hPa 0,0 l/m 0 min 0 min 225 W/m 16,7 km/h (3 Bft) 95,83 %
22.03.2016 14:14 11,8 C 13,9 C 11,7 C 73 % 0 lf 1013,0 hPa 0,0 l/m 0 min 0 min 239 W/m 18,8 km/h (3 Bft) 93,62 %
22.03.2016 14:16 11,8 C 13,9 C 11,7 C 73 % 0 lf 1012,9 hPa 0,0 l/m 0 min 0 min 276 W/m 20,9 km/h (4 Bft) 93,62 %
22.03.2016 14:18 11,8 C 13,9 C 11,7 C 73 % 0 lf 1013,0 hPa 0,0 l/m 0 min 0 min 272 W/m 20,9 km/h (4 Bft) 97,87 %
22.03.2016 14:20 11,8 C 14,4 C 11,7 C 73 % 0 lf 1012,9 hPa 0,0 l/m 0 min 0 min 279 W/m 12,6 km/h (3 Bft) 97,87 %
22.03.2016 14:22 11,8 C 15,0 C 12,2 C 74 % 0 lf 1012,9 hPa 0,0 l/m 2 min 0 min 352 W/m 18,8 km/h (3 Bft) 95,65 %
22.03.2016 14:24 11,9 C 15,0 C 11,7 C 74 % 0 lf 1012,8 hPa 0,0 l/m 0 min 0 min 202 W/m 20,9 km/h (4 Bft) 95,74 %
22.03.2016 14:26 11,9 C 14,4 C 11,7 C 74 % 2 lf 1012,8 hPa 0,0 l/m 0 min 0 min 100 W/m 14,6 km/h (3 Bft) 97,87 %
22.03.2016 14:28 11,9 C 13,9 C 11,1 C 73 % 3 lf 1012,8 hPa 0,0 l/m 0 min 0 min 66 W/m 18,8 km/h (3 Bft) 95,74 %
22.03.2016 14:30 11,9 C 12,8 C 10,0 C 73 % 9 lf 1012,9 hPa 0,0 l/m 0 min 2 min 48 W/m 20,9 km/h (4 Bft) 97,87 %
22.03.2016 14:32 11,8 C 12,2 C 10,0 C 73 % 4 lf 1012,8 hPa 0,0 l/m 0 min 0 min 46 W/m 20,9 km/h (4 Bft) 91,43 %
22.03.2016 14:34 11,8 C 11,7 C 9,4 C 72 % 1 lf 1012,8 hPa 0,0 l/m 0 min 0 min 46 W/m 20,9 km/h (4 Bft) 96,15 %
22.03.2016 14:36 11,7 C 11,7 C 9,4 C 73 % 0 lf 1012,8 hPa 0,0 l/m 0 min 0 min 54 W/m 16,7 km/h (3 Bft) 96,00 %
22.03.2016 14:38 11,6 C 11,7 C 9,4 C 73 % 0 lf 1012,8 hPa 0,0 l/m 0 min 2 min 74 W/m 16,7 km/h (3 Bft) 93,62 %
22.03.2016 14:40 11,6 C 11,7 C 10,0 C 73 % 0 lf 1012,8 hPa 0,0 l/m 0 min 0 min 103 W/m 16,7 km/h (3 Bft) 97,87 %
22.03.2016 14:42 11,5 C 11,7 C 10,0 C 73 % 0 lf 1012,8 hPa 0,0 l/m 0 min 0 min 137 W/m 18,8 km/h (3 Bft) 97,87 %
22.03.2016 14:44 11,4 C 12,2 C 10,6 C 74 % 0 lf 1012,7 hPa 0,0 l/m 0 min 0 min 172 W/m 16,7 km/h (3 Bft) 95,74 %
22.03.2016 14:46 11,4 C 12,2 C 10,6 C 74 % 0 lf 1012,8 hPa 0,0 l/m 0 min 0 min 201 W/m 20,9 km/h (4 Bft) 95,65 %
22.03.2016 14:48 11,4 C 12,8 C 11,1 C 75 % 0 lf 1012,7 hPa 0,0 l/m 0 min 0 min 214 W/m 18,8 km/h (3 Bft) 93,62 %
22.03.2016 14:50 11,4 C 12,8 C 11,1 C 75 % 0 lf 1012,7 hPa 0,0 l/m 0 min 0 min 224 W/m 20,9 km/h (4 Bft) 93,62 %
22.03.2016 14:52 11,3 C 12,8 C 11,1 C 75 % 0 lf 1012,7 hPa 0,0 l/m 0 min 0 min 237 W/m 23,0 km/h (4 Bft) 95,83 %
22.03.2016 14:54 11,3 C 13,3 C 11,1 C 75 % 0 lf 1012,7 hPa 0,0 l/m 2 min 0 min 267 W/m 20,9 km/h (4 Bft) 93,62 %
22.03.2016 14:56 11,4 C 13,9 C 11,7 C 75 % 0 lf 1012,8 hPa 0,0 l/m 2 min 0 min 291 W/m 18,8 km/h (3 Bft) 93,48 %
22.03.2016 14:58 11,4 C 13,9 C 11,7 C 75 % 0 lf 1012,7 hPa 0,0 l/m 2 min 0 min 277 W/m 25,1 km/h (4 Bft) 97,87 %
22.03.2016 15:00 11,4 C 13,3 C 11,1 C 74 % 0 lf 1012,7 hPa 0,0 l/m 0 min 0 min 256 W/m 25,1 km/h (4 Bft) 97,87 %
22.03.2016 15:02 11,4 C 13,9 C 11,7 C 74 % 0 lf 1012,7 hPa 0,0 l/m 2 min 0 min 259 W/m 14,6 km/h (3 Bft) 97,87 %
22.03.2016 15:04 11,5 C 14,4 C 11,7 C 74 % 0 lf 1012,7 hPa 0,0 l/m 2 min 0 min 278 W/m 20,9 km/h (4 Bft) 93,62 %
22.03.2016 15:06 11,5 C 14,4 C 11,7 C 74 % 0 lf 1012,6 hPa 0,0 l/m 2 min 0 min 267 W/m 25,1 km/h (4 Bft) 97,96 %
22.03.2016 15:08 11,6 C 14,4 C 11,7 C 74 % 0 lf 1012,7 hPa 0,0 l/m 0 min 0 min 237 W/m 18,8 km/h (3 Bft) 97,83 %
22.03.2016 15:10 11,6 C 13,9 C 11,7 C 73 % 0 lf 1012,6 hPa 0,0 l/m 0 min 0 min 216 W/m 31,4 km/h (5 Bft) 97,87 %
22.03.2016 15:12 11,6 C 13,9 C 11,7 C 73 % 0 lf 1012,6 hPa 0,0 l/m 0 min 0 min 198 W/m 16,7 km/h (3 Bft) 95,74 %
22.03.2016 15:14 11,7 C 13,9 C 11,7 C 72 % 0 lf 1012,6 hPa 0,0 l/m 0 min 0 min 184 W/m 29,3 km/h (5 Bft) 93,62 %
22.03.2016 15:16 11,7 C 13,3 C 11,1 C 72 % 0 lf 1012,6 hPa 0,0 l/m 0 min 0 min 167 W/m 18,8 km/h (3 Bft) 97,87 %
22.03.2016 15:18 11,7 C 13,3 C 11,1 C 72 % 0 lf 1012,6 hPa 0,0 l/m 0 min 0 min 144 W/m 20,9 km/h (4 Bft) 97,87 %
22.03.2016 15:20 11,7 C 12,8 C 10,6 C 72 % 0 lf 1012,6 hPa 0,0 l/m 0 min 0 min 137 W/m 16,7 km/h (3 Bft) 93,48 %
22.03.2016 15:22 11,7 C 12,8 C 11,1 C 72 % 0 lf 1012,6 hPa 0,0 l/m 0 min 0 min 154 W/m 29,3 km/h (5 Bft) 97,87 %
22.03.2016 15:24 11,7 C 12,2 C 10,6 C 71 % 0 lf 1012,5 hPa 0,0 l/m 0 min 0 min 156 W/m 23,0 km/h (4 Bft) 95,74 %
22.03.2016 15:26 11,6 C 12,2 C 10,6 C 71 % 0 lf 1012,6 hPa 0,0 l/m 0 min 0 min 144 W/m 25,1 km/h (4 Bft) 95,74 %
22.03.2016 15:28 11,6 C 12,2 C 10,6 C 72 % 0 lf 1012,5 hPa 0,0 l/m 0 min 0 min 127 W/m 27,2 km/h (4 Bft) 95,74 %
22.03.2016 15:30 11,6 C 12,8 C 10,6 C 73 % 0 lf 1012,5 hPa 0,0 l/m 0 min 0 min 103 W/m 18,8 km/h (3 Bft) 95,74 %
22.03.2016 15:32 11,6 C 12,2 C 10,6 C 73 % 0 lf 1012,5 hPa 0,0 l/m 0 min 0 min 92 W/m 16,7 km/h (3 Bft) 97,83 %
22.03.2016 15:34 11,6 C 12,2 C 10,6 C 73 % 0 lf 1012,4 hPa 0,0 l/m 0 min 0 min 90 W/m 25,1 km/h (4 Bft) 93,62 %
22.03.2016 15:36 11,6 C 12,2 C 10,6 C 73 % 0 lf 1012,5 hPa 0,0 l/m 0 min 0 min 91 W/m 23,0 km/h (4 Bft) 94,29 %
22.03.2016 15:38 11,5 C 12,2 C 10,6 C 73 % 0 lf 1012,4 hPa 0,0 l/m 0 min 0 min 81 W/m 14,6 km/h (3 Bft) 98,31 %
22.03.2016 15:40 11,5 C 12,2 C 10,0 C 73 % 0 lf 1012,5 hPa 0,0 l/m 0 min 0 min 76 W/m 18,8 km/h (3 Bft) 97,87 %
22.03.2016 15:42 11,5 C 11,7 C 10,0 C 73 % 0 lf 1012,5 hPa 0,0 l/m 0 min 0 min 67 W/m 14,6 km/h (3 Bft) 95,65 %
22.03.2016 15:44 11,4 C 11,7 C 10,0 C 74 % 0 lf 1012,5 hPa 0,0 l/m 0 min 0 min 50 W/m 23,0 km/h (4 Bft) 94,44 %
22.03.2016 15:46 11,4 C 11,7 C 10,0 C 73 % 0 lf 1012,7 hPa 0,0 l/m 0 min 0 min 46 W/m 20,9 km/h (4 Bft) 95,65 %
22.03.2016 15:48 11,3 C 11,1 C 9,4 C 74 % 0 lf 1012,7 hPa 0,0 l/m 0 min 0 min 30 W/m 27,2 km/h (4 Bft) 98,31 %
22.03.2016 15:50 11,2 C 10,6 C 8,9 C 75 % 1 lf 1012,7 hPa 0,0 l/m 0 min 2 min 24 W/m 18,8 km/h (3 Bft) 93,62 %
22.03.2016 15:52 11,1 C 10,0 C 8,9 C 76 % 0 lf 1012,7 hPa 0,0 l/m 0 min 0 min 21 W/m 20,9 km/h (4 Bft) 95,74 %
22.03.2016 15:54 10,9 C 10,0 C 8,3 C 77 % 0 lf 1012,6 hPa 0,0 l/m 0 min 0 min 22 W/m 14,6 km/h (3 Bft) 95,65 %
22.03.2016 15:56 10,8 C 10,0 C 8,3 C 77 % 1 lf 1012,6 hPa 0,0 l/m 0 min 0 min 26 W/m 14,6 km/h (3 Bft) 97,87 %
22.03.2016 15:58 10,7 C 10,0 C 8,3 C 78 % 1 lf 1012,6 hPa 0,0 l/m 0 min 2 min 25 W/m 20,9 km/h (4 Bft) 97,87 %
22.03.2016 16:00 10,6 C 9,4 C 8,3 C 79 % 0 lf 1012,6 hPa 0,0 l/m 0 min 0 min 23 W/m 12,6 km/h (3 Bft) 95,74 %
22.03.2016 16:02 10,5 C 9,4 C 8,3 C 79 % 0 lf 1012,6 hPa 0,0 l/m 0 min 0 min 32 W/m 14,6 km/h (3 Bft) 97,87 %
22.03.2016 16:04 10,4 C 9,4 C 8,3 C 80 % 0 lf 1012,6 hPa 0,0 l/m 0 min 0 min 41 W/m 16,7 km/h (3 Bft) 97,87 %
22.03.2016 16:06 10,3 C 9,4 C 8,3 C 80 % 0 lf 1012,6 hPa 0,0 l/m 0 min 0 min 45 W/m 14,6 km/h (3 Bft) 100,00 %
22.03.2016 16:08 10,2 C 9,4 C 8,3 C 81 % 0 lf 1012,6 hPa 0,0 l/m 0 min 0 min 49 W/m 10,5 km/h (2 Bft) 93,62 %
22.03.2016 16:10 10,1 C 9,4 C 8,3 C 81 % 2 lf 1012,6 hPa 0,0 l/m 0 min 2 min 56 W/m 8,4 km/h (2 Bft) 95,74 %
22.03.2016 16:12 10,1 C 9,4 C 8,3 C 82 % 0 lf 1012,6 hPa 0,0 l/m 0 min 0 min 65 W/m 12,6 km/h (3 Bft) 97,87 %
22.03.2016 16:14 10,0 C 10,0 C 8,3 C 82 % 0 lf 1012,6 hPa 0,0 l/m 0 min 0 min 72 W/m 8,4 km/h (2 Bft) 97,87 %
22.03.2016 16:16 9,9 C 10,0 C 8,3 C 82 % 0 lf 1012,6 hPa 0,0 l/m 0 min 0 min 81 W/m 10,5 km/h (2 Bft) 97,87 %
22.03.2016 16:18 9,9 C 10,0 C 8,9 C 83 % 0 lf 1012,6 hPa 0,0 l/m 0 min 0 min 93 W/m 10,5 km/h (2 Bft) 95,65 %
22.03.2016 16:20 9,9 C 10,0 C 8,9 C 83 % 0 lf 1012,6 hPa 0,0 l/m 0 min 0 min 97 W/m 10,5 km/h (2 Bft) 100,00 %
22.03.2016 16:22 9,8 C 10,0 C 8,9 C 84 % 0 lf 1012,6 hPa 0,0 l/m 0 min 0 min 95 W/m 10,5 km/h (2 Bft) 97,87 %
22.03.2016 16:24 9,8 C 10,0 C 8,9 C 84 % 0 lf 1012,6 hPa 0,0 l/m 0 min 0 min 96 W/m 10,5 km/h (2 Bft) 95,74 %
22.03.2016 16:26 9,8 C 10,0 C 8,9 C 84 % 0 lf 1012,6 hPa 0,0 l/m 0 min 0 min 91 W/m 8,4 km/h (2 Bft) 97,87 %
22.03.2016 16:28 9,7 C 10,6 C 8,9 C 84 % 0 lf 1012,5 hPa 0,0 l/m 0 min 0 min 91 W/m 8,4 km/h (2 Bft) 95,74 %
22.03.2016 16:30 9,7 C 10,6 C 8,9 C 85 % 0 lf 1012,5 hPa 0,0 l/m 0 min 0 min 98 W/m 8,4 km/h (2 Bft) 95,65 %
22.03.2016 16:32 9,7 C 10,6 C 8,9 C 85 % 0 lf 1012,5 hPa 0,0 l/m 0 min 0 min 109 W/m 10,5 km/h (2 Bft) 95,74 %
22.03.2016 16:34 9,7 C 10,6 C 8,9 C 85 % 0 lf 1012,4 hPa 0,0 l/m 0 min 0 min 104 W/m 10,5 km/h (2 Bft) 93,62 %
22.03.2016 16:36 9,7 C 10,6 C 8,9 C 85 % 0 lf 1012,4 hPa 0,0 l/m 0 min 0 min 91 W/m 8,4 km/h (2 Bft) 95,24 %
22.03.2016 16:38 9,7 C 10,6 C 8,9 C 85 % 0 lf 1012,4 hPa 0,0 l/m 0 min 0 min 90 W/m 8,4 km/h (2 Bft) 97,87 %
22.03.2016 16:40 9,7 C 10,6 C 8,9 C 85 % 0 lf 1012,4 hPa 0,0 l/m 0 min 0 min 96 W/m 6,3 km/h (2 Bft) 97,87 %
22.03.2016 16:42 9,7 C 10,6 C 8,9 C 85 % 0 lf 1012,4 hPa 0,0 l/m 0 min 0 min 101 W/m 12,6 km/h (3 Bft) 93,62 %
22.03.2016 16:44 9,7 C 10,6 C 8,9 C 86 % 0 lf 1012,4 hPa 0,0 l/m 0 min 0 min 107 W/m 10,5 km/h (2 Bft) 93,48 %
22.03.2016 16:46 9,7 C 10,6 C 8,9 C 86 % 0 lf 1012,4 hPa 0,0 l/m 0 min 0 min 108 W/m 10,5 km/h (2 Bft) 93,62 %
22.03.2016 16:48 9,7 C 11,1 C 9,4 C 86 % 0 lf 1012,4 hPa 0,0 l/m 0 min 0 min 99 W/m 10,5 km/h (2 Bft) 97,87 %
22.03.2016 16:50 9,7 C 11,1 C 9,4 C 86 % 0 lf 1012,4 hPa 0,0 l/m 0 min 0 min 92 W/m 10,5 km/h (2 Bft) 97,87 %
22.03.2016 16:52 9,7 C 11,1 C 9,4 C 85 % 0 lf 1012,4 hPa 0,0 l/m 0 min 0 min 77 W/m 10,5 km/h (2 Bft) 95,74 %
22.03.2016 16:54 9,7 C 11,1 C 9,4 C 85 % 0 lf 1012,4 hPa 0,0 l/m 0 min 0 min 60 W/m 12,6 km/h (3 Bft) 97,83 %
22.03.2016 16:56 9,7 C 11,1 C 9,4 C 85 % 0 lf 1012,4 hPa 0,0 l/m 0 min 0 min 51 W/m 8,4 km/h (2 Bft) 97,87 %
22.03.2016 16:58 9,7 C 10,6 C 9,4 C 85 % 0 lf 1012,4 hPa 0,0 l/m 0 min 0 min 46 W/m 16,7 km/h (3 Bft) 97,87 %
22.03.2016 17:00 9,7 C 10,6 C 9,4 C 85 % 0 lf 1012,5 hPa 0,0 l/m 0 min 0 min 30 W/m 18,8 km/h (3 Bft) 97,87 %
22.03.2016 17:02 9,7 C 10,6 C 8,9 C 84 % 15 lf 1012,5 hPa 0,0 l/m 0 min 2 min 21 W/m 20,9 km/h (4 Bft) 93,62 %
22.03.2016 17:04 9,8 C 10,0 C 7,8 C 84 % 15 lf 1012,6 hPa 0,2 l/m 0 min 2 min 13 W/m 41,8 km/h (6 Bft) 97,87 %
22.03.2016 17:06 9,8 C 9,4 C 7,2 C 85 % 15 lf 1012,8 hPa 0,6 l/m 0 min 2 min 17 W/m 33,5 km/h (5 Bft) 98,04 %
22.03.2016 17:08 9,7 C 8,9 C 6,7 C 85 % 15 lf 1012,7 hPa 0,2 l/m 0 min 2 min 24 W/m 29,3 km/h (5 Bft) 100,00 %
22.03.2016 17:10 9,7 C 8,3 C 6,7 C 86 % 15 lf 1012,7 hPa 0,0 l/m 0 min 2 min 27 W/m 20,9 km/h (4 Bft) 93,62 %
22.03.2016 17:12 9,6 C 8,3 C 6,7 C 86 % 15 lf 1012,6 hPa 0,0 l/m 0 min 2 min 30 W/m 14,6 km/h (3 Bft) 95,74 %
22.03.2016 17:14 9,4 C 8,3 C 6,7 C 87 % 15 lf 1012,6 hPa 0,2 l/m 0 min 2 min 33 W/m 12,6 km/h (3 Bft) 97,87 %
22.03.2016 17:16 9,4 C 8,3 C 6,7 C 87 % 15 lf 1012,6 hPa 0,0 l/m 0 min 2 min 38 W/m 12,6 km/h (3 Bft) 100,00 %
22.03.2016 17:18 9,3 C 8,3 C 6,7 C 87 % 15 lf 1012,6 hPa 0,0 l/m 0 min 0 min 43 W/m 18,8 km/h (3 Bft) 100,00 %
22.03.2016 17:20 9,2 C 7,8 C 6,7 C 87 % 15 lf 1012,5 hPa 0,0 l/m 0 min 0 min 46 W/m 20,9 km/h (4 Bft) 93,62 %
22.03.2016 17:22 9,1 C 7,8 C 6,1 C 88 % 15 lf 1012,5 hPa 0,0 l/m 0 min 0 min 46 W/m 18,8 km/h (3 Bft) 97,87 %
22.03.2016 17:24 9,0 C 7,8 C 6,1 C 88 % 15 lf 1012,5 hPa 0,0 l/m 0 min 0 min 48 W/m 16,7 km/h (3 Bft) 91,49 %
22.03.2016 17:26 8,9 C 7,8 C 6,1 C 88 % 15 lf 1012,5 hPa 0,0 l/m 0 min 0 min 53 W/m 16,7 km/h (3 Bft) 95,74 %
22.03.2016 17:28 8,8 C 7,8 C 6,7 C 88 % 15 lf 1012,5 hPa 0,0 l/m 0 min 0 min 55 W/m 12,6 km/h (3 Bft) 97,83 %
22.03.2016 17:30 8,7 C 7,8 C 6,7 C 88 % 15 lf 1012,5 hPa 0,0 l/m 0 min 0 min 58 W/m 10,5 km/h (2 Bft) 97,87 %
22.03.2016 17:32 8,7 C 8,3 C 6,7 C 88 % 15 lf 1012,4 hPa 0,0 l/m 0 min 0 min 61 W/m 12,6 km/h (3 Bft) 97,87 %
22.03.2016 17:34 8,7 C 8,3 C 6,7 C 88 % 15 lf 1012,4 hPa 0,0 l/m 0 min 0 min 64 W/m 10,5 km/h (2 Bft) 95,74 %
22.03.2016 17:36 8,7 C 8,3 C 6,7 C 88 % 15 lf 1012,4 hPa 0,0 l/m 0 min 0 min 65 W/m 10,5 km/h (2 Bft) 94,29 %
22.03.2016 17:38 8,6 C 8,3 C 6,7 C 89 % 15 lf 1012,5 hPa 0,0 l/m 0 min 0 min 62 W/m 10,5 km/h (2 Bft) 90,57 %
22.03.2016 17:40 8,6 C 8,3 C 6,7 C 89 % 15 lf 1012,4 hPa 0,0 l/m 0 min 0 min 57 W/m 8,4 km/h (2 Bft) 89,36 %
22.03.2016 17:42 8,5 C 8,3 C 6,7 C 89 % 15 lf 1012,4 hPa 0,0 l/m 0 min 0 min 55 W/m 12,6 km/h (3 Bft) 91,30 %
22.03.2016 17:44 8,5 C 8,3 C 6,7 C 89 % 15 lf 1012,4 hPa 0,0 l/m 0 min 0 min 52 W/m 10,5 km/h (2 Bft) 93,62 %
22.03.2016 17:46 8,4 C 8,3 C 6,1 C 89 % 15 lf 1012,4 hPa 0,0 l/m 0 min 0 min 47 W/m 10,5 km/h (2 Bft) 92,68 %
22.03.2016 17:48 8,4 C 8,3 C 6,1 C 89 % 15 lf 1012,4 hPa 0,0 l/m 0 min 0 min 45 W/m 10,5 km/h (2 Bft) 96,23 %
22.03.2016 17:50 8,4 C 8,3 C 6,1 C 89 % 15 lf 1012,4 hPa 0,0 l/m 0 min 0 min 44 W/m 12,6 km/h (3 Bft) 91,49 %
22.03.2016 17:52 8,3 C 8,3 C 6,7 C 89 % 15 lf 1012,4 hPa 0,0 l/m 0 min 0 min 42 W/m 10,5 km/h (2 Bft) 95,74 %
22.03.2016 17:54 8,3 C 8,3 C 6,7 C 90 % 15 lf 1012,5 hPa 0,0 l/m 0 min 0 min 41 W/m 10,5 km/h (2 Bft) 91,30 %
22.03.2016 17:56 8,3 C 8,3 C 6,7 C 90 % 15 lf 1012,5 hPa 0,0 l/m 0 min 0 min 39 W/m 6,3 km/h (2 Bft) 93,62 %
22.03.2016 17:58 8,3 C 8,3 C 6,7 C 90 % 15 lf 1012,4 hPa 0,0 l/m 0 min 0 min 36 W/m 8,4 km/h (2 Bft) 95,74 %
22.03.2016 18:00 8,2 C 8,3 C 6,7 C 90 % 15 lf 1012,5 hPa 0,0 l/m 0 min 0 min 35 W/m 8,4 km/h (2 Bft) 95,74 %
22.03.2016 18:02 8,2 C 8,3 C 6,7 C 90 % 15 lf 1012,5 hPa 0,0 l/m 0 min 0 min 35 W/m 10,5 km/h (2 Bft) 95,83 %
22.03.2016 18:04 8,2 C 8,3 C 6,7 C 90 % 15 lf 1012,5 hPa 0,0 l/m 0 min 0 min 33 W/m 10,5 km/h (2 Bft) 95,74 %
22.03.2016 18:06 8,2 C 8,3 C 6,7 C 90 % 15 lf 1012,5 hPa 0,0 l/m 0 min 0 min 33 W/m 10,5 km/h (2 Bft) 94,00 %
22.03.2016 18:08 8,2 C 8,3 C 6,7 C 90 % 15 lf 1012,5 hPa 0,0 l/m 0 min 0 min 33 W/m 8,4 km/h (2 Bft) 91,49 %
22.03.2016 18:10 8,2 C 8,3 C 6,1 C 90 % 15 lf 1012,5 hPa 0,0 l/m 0 min 0 min 33 W/m 10,5 km/h (2 Bft) 91,49 %
22.03.2016 18:12 8,2 C 8,3 C 6,1 C 90 % 15 lf 1012,5 hPa 0,0 l/m 0 min 0 min 33 W/m 8,4 km/h (2 Bft) 95,74 %
22.03.2016 18:14 8,2 C 8,3 C 6,1 C 90 % 15 lf 1012,6 hPa 0,0 l/m 0 min 0 min 33 W/m 12,6 km/h (3 Bft) 93,62 %
22.03.2016 18:16 8,1 C 8,3 C 6,1 C 91 % 15 lf 1012,6 hPa 0,0 l/m 0 min 0 min 32 W/m 6,3 km/h (2 Bft) 95,65 %
22.03.2016 18:18 8,1 C 8,3 C 6,1 C 91 % 15 lf 1012,6 hPa 0,0 l/m 0 min 0 min 31 W/m 8,4 km/h (2 Bft) 95,74 %
22.03.2016 18:20 8,1 C 8,3 C 6,1 C 91 % 15 lf 1012,6 hPa 0,0 l/m 0 min 0 min 29 W/m 10,5 km/h (2 Bft) 97,87 %
22.03.2016 18:22 8,1 C 8,3 C 6,1 C 91 % 15 lf 1012,5 hPa 0,0 l/m 0 min 0 min 28 W/m 10,5 km/h (2 Bft) 93,62 %
22.03.2016 18:24 8,1 C 8,3 C 6,1 C 91 % 15 lf 1012,5 hPa 0,0 l/m 0 min 0 min 28 W/m 6,3 km/h (2 Bft) 91,49 %
22.03.2016 18:26 8,1 C 8,3 C 6,1 C 91 % 15 lf 1012,5 hPa 0,0 l/m 2 min 0 min 28 W/m 12,6 km/h (3 Bft) 97,87 %
22.03.2016 18:28 8,1 C 7,8 C 6,1 C 91 % 15 lf 1012,5 hPa 0,0 l/m 2 min 0 min 27 W/m 8,4 km/h (2 Bft) 95,65 %
22.03.2016 18:30 8,1 C 7,8 C 6,1 C 91 % 15 lf 1012,5 hPa 0,0 l/m 2 min 0 min 26 W/m 6,3 km/h (2 Bft) 97,87 %
22.03.2016 18:32 8,1 C 7,8 C 6,1 C 91 % 15 lf 1012,5 hPa 0,0 l/m 2 min 0 min 25 W/m 6,3 km/h (2 Bft) 93,75 %
22.03.2016 18:34 8,0 C 7,8 C 6,1 C 91 % 15 lf 1012,5 hPa 0,0 l/m 2 min 0 min 23 W/m 8,4 km/h (2 Bft) 91,49 %
22.03.2016 18:36 8,0 C 7,8 C 6,1 C 91 % 15 lf 1012,5 hPa 0,0 l/m 2 min 0 min 21 W/m 8,4 km/h (2 Bft) 94,29 %
22.03.2016 18:38 8,0 C 7,8 C 6,1 C 91 % 15 lf 1012,5 hPa 0,0 l/m 2 min 0 min 19 W/m 12,6 km/h (3 Bft) 92,45 %
22.03.2016 18:40 7,9 C 7,8 C 5,6 C 91 % 15 lf 1012,5 hPa 0,0 l/m 0 min 0 min 16 W/m 14,6 km/h (3 Bft) 95,65 %
22.03.2016 18:42 7,9 C 7,8 C 5,6 C 91 % 15 lf 1012,5 hPa 0,0 l/m 0 min 0 min 13 W/m 12,6 km/h (3 Bft) 93,62 %
22.03.2016 18:44 7,9 C 7,8 C 5,6 C 91 % 15 lf 1012,5 hPa 0,0 l/m 0 min 0 min 12 W/m 14,6 km/h (3 Bft) 85,11 %
22.03.2016 18:46 7,9 C 7,8 C 5,6 C 91 % 15 lf 1012,5 hPa 0,0 l/m 0 min 0 min 10 W/m 14,6 km/h (3 Bft) 95,12 %
22.03.2016 18:48 7,9 C 7,8 C 5,6 C 91 % 15 lf 1012,5 hPa 0,0 l/m 0 min 0 min 9 W/m 12,6 km/h (3 Bft) 98,11 %
22.03.2016 18:50 7,8 C 7,8 C 5,6 C 91 % 15 lf 1012,5 hPa 0,0 l/m 0 min 0 min 7 W/m 12,6 km/h (3 Bft) 100,00 %
22.03.2016 18:52 7,8 C 7,8 C 5,6 C 91 % 15 lf 1012,5 hPa 0,0 l/m 0 min 0 min 7 W/m 12,6 km/h (3 Bft) 100,00 %
22.03.2016 18:54 7,8 C 7,8 C 5,6 C 91 % 15 lf 1012,5 hPa 0,0 l/m 0 min 0 min 7 W/m 12,6 km/h (3 Bft) 93,62 %
22.03.2016 18:56 7,8 C 7,8 C 5,6 C 91 % 15 lf 1012,5 hPa 0,0 l/m 0 min 0 min 5 W/m 20,9 km/h (4 Bft) 93,62 %
22.03.2016 18:58 7,8 C 7,8 C 5,6 C 91 % 15 lf 1012,5 hPa 0,0 l/m 0 min 0 min 5 W/m 10,5 km/h (2 Bft) 97,87 %
22.03.2016 19:00 7,8 C 7,2 C 5,6 C 91 % 15 lf 1012,5 hPa 0,0 l/m 0 min 0 min 1 W/m 10,5 km/h (2 Bft) 100,00 %
22.03.2016 19:02 7,7 C 7,2 C 5,6 C 91 % 15 lf 1012,6 hPa 0,0 l/m 0 min 0 min 0 W/m 12,6 km/h (3 Bft) 100,00 %
22.03.2016 19:04 7,7 C 7,2 C 5,6 C 91 % 15 lf 1012,6 hPa 0,0 l/m 0 min 0 min 0 W/m 12,6 km/h (3 Bft) 97,83 %
22.03.2016 19:06 7,7 C 7,2 C 5,6 C 91 % 15 lf 1012,6 hPa 0,0 l/m 0 min 0 min 0 W/m 8,4 km/h (2 Bft) 96,15 %
22.03.2016 19:08 7,7 C 7,2 C 5,6 C 91 % 15 lf 1012,6 hPa 0,0 l/m 0 min 0 min 0 W/m 14,6 km/h (3 Bft) 97,87 %
22.03.2016 19:10 7,7 C 7,2 C 5,6 C 91 % 15 lf 1012,7 hPa 0,0 l/m 0 min 0 min 0 W/m 12,6 km/h (3 Bft) 95,74 %
22.03.2016 19:12 7,7 C 7,2 C 5,6 C 91 % 15 lf 1012,7 hPa 0,0 l/m 0 min 0 min 0 W/m 10,5 km/h (2 Bft) 95,74 %
22.03.2016 19:14 7,7 C 7,2 C 5,6 C 92 % 15 lf 1012,7 hPa 0,0 l/m 0 min 0 min 0 W/m 16,7 km/h (3 Bft) 93,48 %
22.03.2016 19:16 7,7 C 7,2 C 5,6 C 92 % 15 lf 1012,7 hPa 0,0 l/m 0 min 0 min 0 W/m 18,8 km/h (3 Bft) 93,62 %
22.03.2016 19:18 7,7 C 7,2 C 5,6 C 92 % 15 lf 1012,7 hPa 0,0 l/m 0 min 0 min 0 W/m 12,6 km/h (3 Bft) 93,62 %
22.03.2016 19:20 7,7 C 7,8 C 5,6 C 92 % 15 lf 1012,7 hPa 0,0 l/m 0 min 0 min 0 W/m 12,6 km/h (3 Bft) 95,74 %
22.03.2016 19:22 7,7 C 7,8 C 6,1 C 92 % 15 lf 1012,7 hPa 0,0 l/m 0 min 0 min 0 W/m 10,5 km/h (2 Bft) 95,74 %
22.03.2016 19:24 7,7 C 7,8 C 6,1 C 92 % 15 lf 1012,8 hPa 0,0 l/m 0 min 0 min 0 W/m 12,6 km/h (3 Bft) 93,62 %
22.03.2016 19:26 7,7 C 7,8 C 6,1 C 92 % 15 lf 1012,7 hPa 0,0 l/m 0 min 0 min 0 W/m 16,7 km/h (3 Bft) 95,65 %
22.03.2016 19:28 7,7 C 7,8 C 6,1 C 92 % 15 lf 1012,8 hPa 0,0 l/m 0 min 0 min 0 W/m 18,8 km/h (3 Bft) 95,74 %
22.03.2016 19:30 7,7 C 7,8 C 6,1 C 92 % 15 lf 1012,7 hPa 0,0 l/m 0 min 0 min 0 W/m 12,6 km/h (3 Bft) 95,74 %
22.03.2016 19:32 7,7 C 7,8 C 6,1 C 92 % 15 lf 1012,7 hPa 0,0 l/m 0 min 0 min 0 W/m 14,6 km/h (3 Bft) 95,74 %
22.03.2016 19:34 7,7 C 7,8 C 6,1 C 92 % 15 lf 1012,7 hPa 0,0 l/m 0 min 0 min 0 W/m 18,8 km/h (3 Bft) 91,49 %
22.03.2016 19:36 7,7 C 7,8 C 6,1 C 92 % 15 lf 1012,7 hPa 0,0 l/m 0 min 0 min 0 W/m 16,7 km/h (3 Bft) 93,62 %
22.03.2016 19:38 7,7 C 7,8 C 6,1 C 92 % 15 lf 1012,7 hPa 0,0 l/m 0 min 0 min 0 W/m 12,6 km/h (3 Bft) 97,83 %
22.03.2016 19:40 7,7 C 7,8 C 6,1 C 92 % 15 lf 1012,7 hPa 0,0 l/m 0 min 0 min 0 W/m 12,6 km/h (3 Bft) 97,87 %
22.03.2016 19:42 7,7 C 7,8 C 6,1 C 92 % 15 lf 1012,7 hPa 0,0 l/m 0 min 0 min 0 W/m 14,6 km/h (3 Bft) 95,74 %
22.03.2016 19:44 7,7 C 7,8 C 6,1 C 92 % 15 lf 1012,7 hPa 0,0 l/m 0 min 0 min 0 W/m 18,8 km/h (3 Bft) 95,74 %
22.03.2016 19:46 7,8 C 7,8 C 6,1 C 92 % 15 lf 1012,6 hPa 0,0 l/m 0 min 0 min 0 W/m 23,0 km/h (4 Bft) 95,74 %
22.03.2016 19:48 7,8 C 7,8 C 6,1 C 92 % 15 lf 1012,7 hPa 0,0 l/m 0 min 0 min 0 W/m 14,6 km/h (3 Bft) 95,74 %
22.03.2016 19:50 7,8 C 7,8 C 6,1 C 92 % 15 lf 1012,7 hPa 0,0 l/m 0 min 0 min 0 W/m 23,0 km/h (4 Bft) 95,65 %
22.03.2016 19:52 7,7 C 7,8 C 5,6 C 92 % 15 lf 1012,7 hPa 0,0 l/m 0 min 0 min 0 W/m 14,6 km/h (3 Bft) 97,87 %
22.03.2016 19:54 7,8 C 7,8 C 5,6 C 92 % 15 lf 1012,7 hPa 0,0 l/m 0 min 0 min 0 W/m 20,9 km/h (4 Bft) 100,00 %
22.03.2016 19:56 7,8 C 7,8 C 5,6 C 92 % 15 lf 1012,7 hPa 0,0 l/m 0 min 0 min 0 W/m 12,6 km/h (3 Bft) 100,00 %
22.03.2016 19:58 7,8 C 7,8 C 5,6 C 92 % 15 lf 1012,7 hPa 0,0 l/m 0 min 0 min 0 W/m 18,8 km/h (3 Bft) 100,00 %
22.03.2016 20:00 7,8 C 7,8 C 5,6 C 92 % 15 lf 1012,7 hPa 0,0 l/m 0 min 0 min 0 W/m 16,7 km/h (3 Bft) 100,00 %
22.03.2016 20:02 7,8 C 7,8 C 5,6 C 92 % 14 lf 1012,7 hPa 0,0 l/m 0 min 0 min 0 W/m 20,9 km/h (4 Bft) 97,87 %
22.03.2016 20:04 7,8 C 7,8 C 5,6 C 92 % 13 lf 1012,7 hPa 0,0 l/m 0 min 0 min 0 W/m 16,7 km/h (3 Bft) 100,00 %
22.03.2016 20:06 7,8 C 7,8 C 5,6 C 91 % 13 lf 1012,7 hPa 0,0 l/m 0 min 0 min 0 W/m 12,6 km/h (3 Bft) 97,87 %
22.03.2016 20:08 7,8 C 7,8 C 5,6 C 91 % 12 lf 1012,7 hPa 0,0 l/m 0 min 0 min 0 W/m 14,6 km/h (3 Bft) 97,87 %
22.03.2016 20:10 7,8 C 7,8 C 5,6 C 91 % 10 lf 1012,7 hPa 0,0 l/m 0 min 0 min 0 W/m 16,7 km/h (3 Bft) 97,87 %
22.03.2016 20:12 7,8 C 7,8 C 5,6 C 91 % 8 lf 1012,8 hPa 0,0 l/m 0 min 0 min 0 W/m 16,7 km/h (3 Bft) 100,00 %
22.03.2016 20:14 7,8 C 7,8 C 5,6 C 91 % 7 lf 1012,8 hPa 0,0 l/m 0 min 0 min 0 W/m 14,6 km/h (3 Bft) 97,87 %
22.03.2016 20:16 7,8 C 7,8 C 5,6 C 91 % 5 lf 1012,8 hPa 0,0 l/m 0 min 0 min 0 W/m 12,6 km/h (3 Bft) 97,87 %
22.03.2016 20:18 7,8 C 7,8 C 5,6 C 91 % 4 lf 1012,7 hPa 0,0 l/m 0 min 0 min 0 W/m 14,6 km/h (3 Bft) 95,74 %
22.03.2016 20:20 7,8 C 7,2 C 5,6 C 91 % 4 lf 1012,8 hPa 0,0 l/m 0 min 0 min 0 W/m 10,5 km/h (2 Bft) 100,00 %
22.03.2016 20:22 7,8 C 7,2 C 5,6 C 91 % 3 lf 1012,8 hPa 0,0 l/m 0 min 0 min 0 W/m 12,6 km/h (3 Bft) 100,00 %
22.03.2016 20:24 7,8 C 7,2 C 5,6 C 91 % 3 lf 1012,7 hPa 0,0 l/m 0 min 0 min 0 W/m 18,8 km/h (3 Bft) 100,00 %
22.03.2016 20:26 7,7 C 7,2 C 5,6 C 91 % 3 lf 1012,8 hPa 0,0 l/m 0 min 0 min 0 W/m 14,6 km/h (3 Bft) 97,87 %
22.03.2016 20:28 7,7 C 7,2 C 5,6 C 91 % 3 lf 1012,8 hPa 0,0 l/m 0 min 0 min 0 W/m 12,6 km/h (3 Bft) 97,87 %
22.03.2016 20:30 7,7 C 7,2 C 5,0 C 90 % 3 lf 1012,7 hPa 0,0 l/m 0 min 0 min 0 W/m 12,6 km/h (3 Bft) 100,00 %
22.03.2016 20:32 7,7 C 7,2 C 5,6 C 90 % 2 lf 1012,7 hPa 0,0 l/m 0 min 0 min 0 W/m 16,7 km/h (3 Bft) 95,74 %
22.03.2016 20:34 7,7 C 7,2 C 5,0 C 90 % 2 lf 1012,7 hPa 0,0 l/m 0 min 0 min 0 W/m 16,7 km/h (3 Bft) 97,87 %
22.03.2016 20:36 7,7 C 7,2 C 5,6 C 90 % 1 lf 1012,7 hPa 0,0 l/m 0 min 0 min 0 W/m 16,7 km/h (3 Bft) 100,00 %
22.03.2016 20:38 7,6 C 7,2 C 5,0 C 90 % 1 lf 1012,7 hPa 0,0 l/m 0 min 0 min 0 W/m 16,7 km/h (3 Bft) 97,87 %
22.03.2016 20:40 7,6 C 7,2 C 5,0 C 90 % 1 lf 1012,7 hPa 0,0 l/m 0 min 0 min 0 W/m 12,6 km/h (3 Bft) 97,87 %
22.03.2016 20:42 7,6 C 7,2 C 5,0 C 90 % 1 lf 1012,7 hPa 0,0 l/m 0 min 0 min 0 W/m 12,6 km/h (3 Bft) 94,29 %
22.03.2016 20:44 7,6 C 7,2 C 5,0 C 90 % 1 lf 1012,7 hPa 0,0 l/m 0 min 0 min 0 W/m 14,6 km/h (3 Bft) 91,49 %
22.03.2016 20:46 7,6 C 7,2 C 5,0 C 90 % 1 lf 1012,7 hPa 0,0 l/m 0 min 0 min 0 W/m 6,3 km/h (2 Bft) 97,87 %
22.03.2016 20:48 7,5 C 6,7 C 5,0 C 90 % 1 lf 1012,7 hPa 0,0 l/m 0 min 0 min 0 W/m 10,5 km/h (2 Bft) 93,62 %
22.03.2016 20:50 7,5 C 6,7 C 5,0 C 90 % 1 lf 1012,7 hPa 0,0 l/m 0 min 0 min 0 W/m 10,5 km/h (2 Bft) 97,83 %
22.03.2016 20:52 7,5 C 6,7 C 5,0 C 90 % 1 lf 1012,7 hPa 0,0 l/m 0 min 0 min 0 W/m 12,6 km/h (3 Bft) 95,74 %
22.03.2016 20:54 7,5 C 6,7 C 5,0 C 90 % 1 lf 1012,7 hPa 0,0 l/m 0 min 0 min 0 W/m 8,4 km/h (2 Bft) 96,23 %
22.03.2016 20:56 7,4 C 6,7 C 5,0 C 90 % 1 lf 1012,7 hPa 0,0 l/m 0 min 0 min 0 W/m 6,3 km/h (2 Bft) 93,62 %
22.03.2016 20:58 7,4 C 6,7 C 5,0 C 90 % 1 lf 1012,7 hPa 0,0 l/m 0 min 0 min 0 W/m 8,4 km/h (2 Bft) 93,62 %
22.03.2016 21:00 7,4 C 6,7 C 5,0 C 90 % 1 lf 1012,7 hPa 0,0 l/m 0 min 0 min 0 W/m 8,4 km/h (2 Bft) 95,65 %
22.03.2016 21:02 7,4 C 6,7 C 4,4 C 90 % 1 lf 1012,7 hPa 0,0 l/m 0 min 0 min 0 W/m 10,5 km/h (2 Bft) 93,75 %
22.03.2016 21:04 7,3 C 6,7 C 5,0 C 89 % 1 lf 1012,7 hPa 0,0 l/m 0 min 0 min 0 W/m 8,4 km/h (2 Bft) 93,62 %
22.03.2016 21:06 7,3 C 6,7 C 4,4 C 89 % 1 lf 1012,7 hPa 0,0 l/m 0 min 0 min 0 W/m 12,6 km/h (3 Bft) 94,23 %
22.03.2016 21:08 7,3 C 6,7 C 5,0 C 89 % 1 lf 1012,7 hPa 0,0 l/m 0 min 0 min 0 W/m 8,4 km/h (2 Bft) 95,74 %
22.03.2016 21:10 7,3 C 6,7 C 5,0 C 89 % 1 lf 1012,7 hPa 0,0 l/m 0 min 0 min 0 W/m 6,3 km/h (2 Bft) 97,83 %
22.03.2016 21:12 7,3 C 6,7 C 5,0 C 89 % 1 lf 1012,7 hPa 0,0 l/m 0 min 0 min 0 W/m 10,5 km/h (2 Bft) 93,62 %
22.03.2016 21:14 7,2 C 6,7 C 5,0 C 90 % 1 lf 1012,7 hPa 0,0 l/m 0 min 0 min 0 W/m 12,6 km/h (3 Bft) 95,74 %
22.03.2016 21:16 7,2 C 6,7 C 5,0 C 90 % 1 lf 1012,7 hPa 0,0 l/m 0 min 0 min 0 W/m 12,6 km/h (3 Bft) 91,49 %
22.03.2016 21:18 7,2 C 6,7 C 5,0 C 90 % 1 lf 1012,7 hPa 0,0 l/m 0 min 0 min 0 W/m 12,6 km/h (3 Bft) 89,36 %
22.03.2016 21:20 7,2 C 7,2 C 5,0 C 90 % 0 lf 1012,7 hPa 0,0 l/m 0 min 0 min 0 W/m 10,5 km/h (2 Bft) 97,87 %
22.03.2016 21:22 7,2 C 7,2 C 5,0 C 90 % 0 lf 1012,7 hPa 0,0 l/m 0 min 0 min 0 W/m 12,6 km/h (3 Bft) 95,65 %
22.03.2016 21:24 7,2 C 7,2 C 5,0 C 90 % 0 lf 1012,7 hPa 0,0 l/m 0 min 0 min 0 W/m 12,6 km/h (3 Bft) 93,62 %
22.03.2016 21:26 7,2 C 7,2 C 5,0 C 90 % 0 lf 1012,7 hPa 0,0 l/m 0 min 0 min 0 W/m 6,3 km/h (2 Bft) 95,74 %
22.03.2016 21:28 7,2 C 7,2 C 5,0 C 90 % 0 lf 1012,7 hPa 0,0 l/m 0 min 0 min 0 W/m 12,6 km/h (3 Bft) 95,74 %
22.03.2016 21:30 7,2 C 7,2 C 5,0 C 90 % 0 lf 1012,7 hPa 0,0 l/m 0 min 0 min 0 W/m 12,6 km/h (3 Bft) 95,74 %
22.03.2016 21:32 7,2 C 7,2 C 5,0 C 90 % 0 lf 1012,7 hPa 0,0 l/m 0 min 0 min 0 W/m 10,5 km/h (2 Bft) 94,29 %
22.03.2016 21:34 7,2 C 7,2 C 5,0 C 90 % 0 lf 1012,7 hPa 0,0 l/m 0 min 0 min 0 W/m 10,5 km/h (2 Bft) 95,74 %
22.03.2016 21:36 7,2 C 7,2 C 5,0 C 90 % 0 lf 1012,7 hPa 0,0 l/m 0 min 0 min 0 W/m 8,4 km/h (2 Bft) 98,28 %
22.03.2016 21:38 7,2 C 7,2 C 5,0 C 90 % 0 lf 1012,7 hPa 0,0 l/m 0 min 0 min 0 W/m 10,5 km/h (2 Bft) 100,00 %
22.03.2016 21:40 7,2 C 7,2 C 5,0 C 90 % 0 lf 1012,8 hPa 0,0 l/m 0 min 0 min 0 W/m 20,9 km/h (4 Bft) 97,87 %
22.03.2016 21:42 7,2 C 7,2 C 5,0 C 90 % 0 lf 1012,7 hPa 0,0 l/m 0 min 0 min 0 W/m 16,7 km/h (3 Bft) 95,74 %
22.03.2016 21:44 7,2 C 7,2 C 5,0 C 90 % 0 lf 1012,7 hPa 0,0 l/m 0 min 0 min 0 W/m 14,6 km/h (3 Bft) 97,87 %
22.03.2016 21:46 7,2 C 7,2 C 5,6 C 90 % 0 lf 1012,7 hPa 0,0 l/m 0 min 0 min 0 W/m 20,9 km/h (4 Bft) 97,87 %
22.03.2016 21:48 7,2 C 7,2 C 5,0 C 90 % 0 lf 1012,7 hPa 0,0 l/m 0 min 0 min 0 W/m 14,6 km/h (3 Bft) 97,83 %
22.03.2016 21:50 7,2 C 7,2 C 5,6 C 90 % 0 lf 1012,7 hPa 0,0 l/m 0 min 0 min 0 W/m 14,6 km/h (3 Bft) 95,74 %
22.03.2016 21:52 7,2 C 7,2 C 5,6 C 90 % 0 lf 1012,7 hPa 0,0 l/m 0 min 0 min 0 W/m 14,6 km/h (3 Bft) 95,74 %
22.03.2016 21:54 7,2 C 7,2 C 5,6 C 90 % 0 lf 1012,7 hPa 0,0 l/m 0 min 0 min 0 W/m 14,6 km/h (3 Bft) 93,62 %
22.03.2016 21:56 7,2 C 7,2 C 5,6 C 90 % 0 lf 1012,7 hPa 0,0 l/m 0 min 0 min 0 W/m 23,0 km/h (4 Bft) 100,00 %
22.03.2016 21:58 7,2 C 7,2 C 5,6 C 90 % 0 lf 1012,7 hPa 0,0 l/m 0 min 0 min 0 W/m 25,1 km/h (4 Bft) 95,74 %
22.03.2016 22:00 7,2 C 7,2 C 5,6 C 90 % 0 lf 1012,7 hPa 0,0 l/m 0 min 0 min 0 W/m 20,9 km/h (4 Bft) 95,65 %
22.03.2016 22:02 7,3 C 7,2 C 5,6 C 90 % 0 lf 1012,7 hPa 0,0 l/m 0 min 0 min 0 W/m 16,7 km/h (3 Bft) 93,62 %
22.03.2016 22:04 7,3 C 7,2 C 5,6 C 90 % 0 lf 1012,7 hPa 0,0 l/m 0 min 0 min 0 W/m 14,6 km/h (3 Bft) 93,22 %
22.03.2016 22:06 7,3 C 7,2 C 5,0 C 90 % 0 lf 1012,7 hPa 0,0 l/m 0 min 0 min 0 W/m 18,8 km/h (3 Bft) 93,62 %
22.03.2016 22:08 7,3 C 7,2 C 5,0 C 90 % 0 lf 1012,6 hPa 0,0 l/m 0 min 0 min 0 W/m 20,9 km/h (4 Bft) 97,14 %
22.03.2016 22:10 7,3 C 7,2 C 5,0 C 90 % 0 lf 1012,6 hPa 0,0 l/m 0 min 0 min 0 W/m 18,8 km/h (3 Bft) 95,74 %
22.03.2016 22:12 7,3 C 7,2 C 5,0 C 90 % 0 lf 1012,6 hPa 0,0 l/m 0 min 0 min 0 W/m 20,9 km/h (4 Bft) 95,65 %
22.03.2016 22:14 7,2 C 7,2 C 5,0 C 90 % 0 lf 1012,6 hPa 0,0 l/m 0 min 0 min 0 W/m 16,7 km/h (3 Bft) 93,62 %
22.03.2016 22:16 7,2 C 7,2 C 5,0 C 90 % 0 lf 1012,6 hPa 0,0 l/m 0 min 0 min 0 W/m 18,8 km/h (3 Bft) 95,74 %
22.03.2016 22:18 7,2 C 7,2 C 5,0 C 90 % 0 lf 1012,6 hPa 0,0 l/m 0 min 0 min 0 W/m 29,3 km/h (5 Bft) 95,74 %
22.03.2016 22:20 7,2 C 7,2 C 5,0 C 90 % 0 lf 1012,6 hPa 0,0 l/m 0 min 0 min 0 W/m 14,6 km/h (3 Bft) 94,83 %
22.03.2016 22:22 7,2 C 7,2 C 5,0 C 90 % 0 lf 1012,6 hPa 0,0 l/m 0 min 0 min 0 W/m 25,1 km/h (4 Bft) 94,44 %
22.03.2016 22:24 7,2 C 7,2 C 5,0 C 90 % 0 lf 1012,6 hPa 0,0 l/m 0 min 0 min 0 W/m 14,6 km/h (3 Bft) 94,23 %
22.03.2016 22:26 7,2 C 7,2 C 5,0 C 90 % 0 lf 1012,5 hPa 0,0 l/m 0 min 0 min 0 W/m 12,6 km/h (3 Bft) 87,23 %
22.03.2016 22:28 7,1 C 7,2 C 5,0 C 90 % 0 lf 1012,5 hPa 0,0 l/m 0 min 0 min 0 W/m 16,7 km/h (3 Bft) 93,62 %
22.03.2016 22:30 7,1 C 6,7 C 5,0 C 90 % 0 lf 1012,5 hPa 0,0 l/m 0 min 0 min 0 W/m 10,5 km/h (2 Bft) 95,74 %
22.03.2016 22:32 7,1 C 6,7 C 5,0 C 90 % 0 lf 1012,5 hPa 0,0 l/m 0 min 0 min 0 W/m 12,6 km/h (3 Bft) 95,83 %
22.03.2016 22:34 7,1 C 6,7 C 5,0 C 90 % 0 lf 1012,5 hPa 0,0 l/m 0 min 0 min 0 W/m 12,6 km/h (3 Bft) 93,48 %
22.03.2016 22:36 7,1 C 6,7 C 5,0 C 90 % 0 lf 1012,5 hPa 0,0 l/m 0 min 0 min 0 W/m 10,5 km/h (2 Bft) 98,08 %
22.03.2016 22:38 7,1 C 6,7 C 5,0 C 90 % 0 lf 1012,5 hPa 0,0 l/m 0 min 0 min 0 W/m 10,5 km/h (2 Bft) 95,74 %
22.03.2016 22:40 7,0 C 6,7 C 4,4 C 90 % 0 lf 1012,5 hPa 0,0 l/m 0 min 0 min 0 W/m 14,6 km/h (3 Bft) 97,87 %
22.03.2016 22:42 7,0 C 6,7 C 4,4 C 90 % 0 lf 1012,5 hPa 0,0 l/m 0 min 0 min 0 W/m 12,6 km/h (3 Bft) 89,36 %
22.03.2016 22:44 7,0 C 6,1 C 4,4 C 90 % 0 lf 1012,5 hPa 0,0 l/m 0 min 0 min 0 W/m 14,6 km/h (3 Bft) 93,48 %
22.03.2016 22:46 6,9 C 6,1 C 4,4 C 90 % 0 lf 1012,5 hPa 0,0 l/m 0 min 0 min 0 W/m 14,6 km/h (3 Bft) 93,62 %
22.03.2016 22:48 6,9 C 6,1 C 4,4 C 90 % 0 lf 1012,5 hPa 0,0 l/m 0 min 0 min 0 W/m 14,6 km/h (3 Bft) 95,74 %
22.03.2016 22:50 6,9 C 6,1 C 4,4 C 90 % 0 lf 1012,5 hPa 0,0 l/m 0 min 0 min 0 W/m 8,4 km/h (2 Bft) 93,62 %
22.03.2016 22:52 6,9 C 6,1 C 4,4 C 90 % 0 lf 1012,5 hPa 0,0 l/m 0 min 0 min 0 W/m 8,4 km/h (2 Bft) 93,62 %
22.03.2016 22:54 6,9 C 6,1 C 4,4 C 90 % 0 lf 1012,5 hPa 0,0 l/m 0 min 0 min 0 W/m 12,6 km/h (3 Bft) 95,74 %
22.03.2016 22:56 6,8 C 6,1 C 4,4 C 90 % 0 lf 1012,6 hPa 0,0 l/m 0 min 0 min 0 W/m 10,5 km/h (2 Bft) 95,65 %
22.03.2016 22:58 6,8 C 6,1 C 4,4 C 90 % 0 lf 1012,6 hPa 0,0 l/m 0 min 0 min 0 W/m 8,4 km/h (2 Bft) 93,62 %
22.03.2016 23:00 6,8 C 6,1 C 4,4 C 90 % 0 lf 1012,5 hPa 0,0 l/m 0 min 0 min 0 W/m 8,4 km/h (2 Bft) 95,74 %
22.03.2016 23:02 6,8 C 6,1 C 4,4 C 90 % 0 lf 1012,5 hPa 0,0 l/m 0 min 0 min 0 W/m 8,4 km/h (2 Bft) 95,74 %
22.03.2016 23:04 6,8 C 6,1 C 4,4 C 90 % 0 lf 1012,5 hPa 0,0 l/m 0 min 0 min 0 W/m 14,6 km/h (3 Bft) 91,49 %
22.03.2016 23:06 6,7 C 6,1 C 4,4 C 90 % 0 lf 1012,5 hPa 0,0 l/m 0 min 0 min 0 W/m 10,5 km/h (2 Bft) 95,74 %
22.03.2016 23:08 6,7 C 6,1 C 4,4 C 90 % 0 lf 1012,5 hPa 0,0 l/m 0 min 0 min 0 W/m 10,5 km/h (2 Bft) 93,48 %
22.03.2016 23:10 6,7 C 6,1 C 3,9 C 90 % 0 lf 1012,5 hPa 0,0 l/m 0 min 0 min 0 W/m 10,5 km/h (2 Bft) 95,74 %
22.03.2016 23:12 6,6 C 5,6 C 4,4 C 90 % 0 lf 1012,5 hPa 0,0 l/m 0 min 0 min 0 W/m 14,6 km/h (3 Bft) 97,87 %
22.03.2016 23:14 6,6 C 5,6 C 4,4 C 90 % 0 lf 1012,5 hPa 0,0 l/m 0 min 0 min 0 W/m 10,5 km/h (2 Bft) 100,00 %
22.03.2016 23:16 6,6 C 5,6 C 4,4 C 90 % 0 lf 1012,5 hPa 0,0 l/m 0 min 0 min 0 W/m 12,6 km/h (3 Bft) 95,74 %
22.03.2016 23:18 6,6 C 6,1 C 4,4 C 90 % 0 lf 1012,5 hPa 0,0 l/m 0 min 0 min 0 W/m 10,5 km/h (2 Bft) 97,83 %
22.03.2016 23:20 6,5 C 6,1 C 4,4 C 90 % 0 lf 1012,5 hPa 0,0 l/m 0 min 0 min 0 W/m 8,4 km/h (2 Bft) 100,00 %
22.03.2016 23:22 6,5 C 6,1 C 4,4 C 90 % 0 lf 1012,5 hPa 0,0 l/m 0 min 0 min 0 W/m 12,6 km/h (3 Bft) 97,87 %
22.03.2016 23:24 6,4 C 6,1 C 4,4 C 90 % 0 lf 1012,5 hPa 0,0 l/m 0 min 0 min 0 W/m 8,4 km/h (2 Bft) 100,00 %
22.03.2016 23:26 6,4 C 6,1 C 4,4 C 90 % 0 lf 1012,5 hPa 0,0 l/m 0 min 0 min 0 W/m 12,6 km/h (3 Bft) 95,74 %
22.03.2016 23:28 6,4 C 5,6 C 4,4 C 90 % 0 lf 1012,5 hPa 0,0 l/m 0 min 0 min 0 W/m 10,5 km/h (2 Bft) 97,87 %
22.03.2016 23:30 6,4 C 5,6 C 4,4 C 90 % 0 lf 1012,5 hPa 0,0 l/m 0 min 0 min 0 W/m 10,5 km/h (2 Bft) 97,83 %
22.03.2016 23:32 6,4 C 5,6 C 4,4 C 90 % 0 lf 1012,5 hPa 0,0 l/m 0 min 0 min 0 W/m 8,4 km/h (2 Bft) 97,87 %
22.03.2016 23:34 6,4 C 6,1 C 4,4 C 90 % 0 lf 1012,4 hPa 0,0 l/m 0 min 0 min 0 W/m 12,6 km/h (3 Bft) 100,00 %
22.03.2016 23:36 6,4 C 6,1 C 4,4 C 90 % 0 lf 1012,5 hPa 0,0 l/m 0 min 0 min 0 W/m 10,5 km/h (2 Bft) 100,00 %
22.03.2016 23:38 6,3 C 6,1 C 4,4 C 90 % 0 lf 1012,4 hPa 0,0 l/m 0 min 0 min 0 W/m 16,7 km/h (3 Bft) 95,74 %
22.03.2016 23:40 6,3 C 6,1 C 4,4 C 91 % 0 lf 1012,4 hPa 0,0 l/m 0 min 0 min 0 W/m 12,6 km/h (3 Bft) 100,00 %
22.03.2016 23:42 6,3 C 6,1 C 4,4 C 91 % 0 lf 1012,4 hPa 0,0 l/m 0 min 0 min 0 W/m 14,6 km/h (3 Bft) 100,00 %
22.03.2016 23:44 6,3 C 6,1 C 4,4 C 91 % 0 lf 1012,3 hPa 0,0 l/m 0 min 0 min 0 W/m 14,6 km/h (3 Bft) 93,62 %
22.03.2016 23:46 6,3 C 6,1 C 4,4 C 91 % 0 lf 1012,3 hPa 0,0 l/m 0 min 0 min 0 W/m 12,6 km/h (3 Bft) 97,87 %
22.03.2016 23:48 6,3 C 6,1 C 4,4 C 91 % 0 lf 1012,4 hPa 0,0 l/m 0 min 0 min 0 W/m 12,6 km/h (3 Bft) 97,87 %
22.03.2016 23:50 6,3 C 6,1 C 4,4 C 91 % 0 lf 1012,4 hPa 0,0 l/m 0 min 0 min 0 W/m 14,6 km/h (3 Bft) 97,87 %
22.03.2016 23:52 6,3 C 6,1 C 4,4 C 91 % 0 lf 1012,4 hPa 0,0 l/m 0 min 0 min 0 W/m 12,6 km/h (3 Bft) 97,87 %
22.03.2016 23:54 6,3 C 6,1 C 4,4 C 91 % 0 lf 1012,4 hPa 0,0 l/m 0 min 0 min 0 W/m 10,5 km/h (2 Bft) 95,65 %
22.03.2016 23:56 6,3 C 6,1 C 4,4 C 91 % 0 lf 1012,4 hPa 0,0 l/m 0 min 0 min 0 W/m 12,6 km/h (3 Bft) 97,87 %
22.03.2016 23:58 6,3 C 6,1 C 4,4 C 91 % 0 lf 1012,4 hPa 0,0 l/m 0 min 0 min 0 W/m 12,6 km/h (3 Bft) 97,87 %
_ Min-Zeit 05:04 01:10 01:04 15:24 00:00 23:44 - - - - 04:28 00:16
Minimum _ 4,0 C 3,3 C 2,2 C 71 % 0 lf 1012,3 hPa - - - - 2,1 km/h (1 Bft) 85,11 %
_ Max-Zeit 13:50 11:06 11:06 07:34 17:02 00:00 17:06 07:28 14:30 11:06 17:04 00:50
Maximum _ 12,1 C 21,1 C 16,7 C 96 % 15 lf 1016,9 hPa 0,6 l/m 2 min 2 min 840 W/m 41,8 km/h
N-NW (6 Bft)
100,00 %
Durchschnitt _ 7,4 C 8,3 C 6,4 C 88 % 2 lf 1014,1 hPa #1,2 l/m #3:26 h #26 min. 165 W/m 13,2 km/h (3 Bft) 96,03 %
© 2016 W. Hausmann